Wetterdaten: Dienstag, 18.05.2010
Datum Zeit Temp. Innen Temp. Aussen UV X Diff Temp. Feuchte Inne Feuchte Auss Sonnenschein Luftdruck Regen ab 0,1 Wind Sonnenschein Windben
18.05.2010 00:02 16,3 C 8,7 C 0,0 UV-I 0,0 C 55 % 87 % 0 % 1026,0 hPa 0,0 l/m 0,4 km/h (0 Bft) 0 min 0,0 km/h (0 Bft)
18.05.2010 00:04 16,3 C 8,7 C 0,0 UV-I 0,0 C 55 % 87 % 0 % 1026,0 hPa 0,0 l/m 0,4 km/h (0 Bft) 0 min 0,0 km/h (0 Bft)
18.05.2010 00:08 16,3 C 8,5 C 0,0 UV-I 0,0 C 55 % 87 % 0 % 1026,0 hPa 0,0 l/m 0,4 km/h (0 Bft) 0 min 0,0 km/h (0 Bft)
18.05.2010 00:10 16,3 C 8,5 C 0,0 UV-I 0,0 C 55 % 88 % 0 % 1026,0 hPa 0,0 l/m 0,4 km/h (0 Bft) 0 min 0,0 km/h (0 Bft)
18.05.2010 00:12 16,3 C 8,4 C 0,0 UV-I 0,0 C 55 % 88 % 0 % 1025,9 hPa 0,0 l/m 0,4 km/h (0 Bft) 0 min 0,0 km/h (0 Bft)
18.05.2010 00:16 16,2 C 8,5 C 0,0 UV-I 0,0 C 55 % 88 % 0 % 1025,9 hPa 0,0 l/m 0,0 km/h (0 Bft) 0 min 4,2 km/h (1 Bft)
18.05.2010 00:18 16,2 C 8,4 C 0,0 UV-I 0,0 C 55 % 88 % 0 % 1025,9 hPa 0,0 l/m 0,4 km/h (0 Bft) 0 min 0,0 km/h (0 Bft)
18.05.2010 00:22 16,2 C 8,3 C 0,0 UV-I 0,0 C 55 % 88 % 0 % 1025,9 hPa 0,0 l/m 0,4 km/h (0 Bft) 0 min 0,0 km/h (0 Bft)
18.05.2010 00:24 16,2 C 8,3 C 0,0 UV-I 0,0 C 55 % 88 % 0 % 1025,9 hPa 0,0 l/m 0,4 km/h (0 Bft) 0 min 0,0 km/h (0 Bft)
18.05.2010 00:28 16,2 C 8,3 C 0,0 UV-I 0,0 C 56 % 88 % 0 % 1025,9 hPa 0,0 l/m 0,0 km/h (0 Bft) 0 min 0,0 km/h (0 Bft)
18.05.2010 00:30 16,2 C 8,3 C 0,0 UV-I 0,0 C 55 % 88 % 0 % 1025,9 hPa 0,0 l/m 0,0 km/h (0 Bft) 0 min 0,0 km/h (0 Bft)
18.05.2010 00:32 16,2 C 8,1 C 0,0 UV-I 0,0 C 56 % 88 % 0 % 1026,3 hPa 0,0 l/m 0,0 km/h (0 Bft) 0 min 0,0 km/h (0 Bft)
18.05.2010 00:34 16,2 C 8,1 C 0,0 UV-I 0,0 C 56 % 88 % 0 % 1026,3 hPa 0,0 l/m 0,0 km/h (0 Bft) 0 min 0,0 km/h (0 Bft)
18.05.2010 00:36 16,2 C 8,1 C 0,0 UV-I 0,0 C 56 % 88 % 0 % 1026,3 hPa 0,0 l/m 0,0 km/h (0 Bft) 0 min 0,0 km/h (0 Bft)
18.05.2010 00:38 16,2 C 8,0 C 0,0 UV-I 0,0 C 56 % 88 % 0 % 1026,3 hPa 0,0 l/m 0,0 km/h (0 Bft) 0 min 0,0 km/h (0 Bft)
18.05.2010 00:40 16,2 C 8,0 C 0,0 UV-I 0,0 C 56 % 89 % 0 % 1026,3 hPa 0,0 l/m 0,0 km/h (0 Bft) 0 min 0,0 km/h (0 Bft)
18.05.2010 00:42 16,1 C 8,1 C 0,0 UV-I 0,0 C 56 % 89 % 0 % 1026,3 hPa 0,0 l/m 0,0 km/h (0 Bft) 0 min 0,0 km/h (0 Bft)
18.05.2010 00:44 16,1 C 8,1 C 0,0 UV-I 0,0 C 56 % 89 % 0 % 1026,3 hPa 0,0 l/m 0,0 km/h (0 Bft) 0 min 0,0 km/h (0 Bft)
18.05.2010 00:46 16,1 C 8,0 C 0,0 UV-I 0,0 C 56 % 89 % 0 % 1026,3 hPa 0,0 l/m 0,0 km/h (0 Bft) 0 min 0,0 km/h (0 Bft)
18.05.2010 00:48 16,1 C 8,0 C 0,0 UV-I 0,0 C 56 % 89 % 0 % 1026,3 hPa 0,0 l/m 0,0 km/h (0 Bft) 0 min 0,0 km/h (0 Bft)
18.05.2010 00:50 16,1 C 7,9 C 0,0 UV-I 0,0 C 56 % 89 % 0 % 1026,3 hPa 0,0 l/m 0,0 km/h (0 Bft) 0 min 0,0 km/h (0 Bft)
18.05.2010 00:52 16,1 C 7,9 C 0,0 UV-I 0,0 C 56 % 89 % 0 % 1026,4 hPa 0,0 l/m 0,0 km/h (0 Bft) 0 min 0,0 km/h (0 Bft)
18.05.2010 00:54 16,1 C 7,9 C 0,0 UV-I 0,0 C 56 % 89 % 0 % 1026,4 hPa 0,0 l/m 0,0 km/h (0 Bft) 0 min 0,0 km/h (0 Bft)
18.05.2010 00:56 15,9 C 7,9 C 0,0 UV-I 0,0 C 56 % 89 % 0 % 1026,4 hPa 0,0 l/m 0,0 km/h (0 Bft) 0 min 0,0 km/h (0 Bft)
18.05.2010 00:58 15,9 C 7,8 C 0,0 UV-I 0,0 C 56 % 89 % 0 % 1026,4 hPa 0,0 l/m 0,0 km/h (0 Bft) 0 min 0,0 km/h (0 Bft)
18.05.2010 01:00 15,9 C 7,9 C 0,0 UV-I 0,0 C 56 % 89 % 0 % 1026,4 hPa 0,0 l/m 0,0 km/h (0 Bft) 0 min 0,0 km/h (0 Bft)
18.05.2010 01:02 16,1 C 7,9 C 0,0 UV-I 0,0 C 56 % 89 % 0 % 1026,4 hPa 0,0 l/m 0,0 km/h (0 Bft) 0 min 0,0 km/h (0 Bft)
18.05.2010 01:06 15,9 C 7,7 C 0,0 UV-I 0,0 C 56 % 89 % 0 % 1026,4 hPa 0,0 l/m 0,0 km/h (0 Bft) 0 min 0,0 km/h (0 Bft)
18.05.2010 01:08 16,0 C 7,7 C 0,0 UV-I 0,0 C 56 % 89 % 0 % 1026,4 hPa 0,0 l/m 0,0 km/h (0 Bft) 0 min 0,0 km/h (0 Bft)
18.05.2010 01:10 16,0 C 7,7 C 0,0 UV-I 0,0 C 56 % 89 % 0 % 1026,4 hPa 0,0 l/m 0,0 km/h (0 Bft) 0 min 0,0 km/h (0 Bft)
18.05.2010 01:12 16,0 C 7,7 C 0,0 UV-I 0,0 C 56 % 89 % 0 % 1026,6 hPa 0,0 l/m 0,0 km/h (0 Bft) 0 min 0,0 km/h (0 Bft)
18.05.2010 01:14 15,9 C 7,6 C 0,0 UV-I 0,0 C 56 % 89 % 0 % 1026,6 hPa 0,0 l/m 0,0 km/h (0 Bft) 0 min 0,0 km/h (0 Bft)
18.05.2010 01:18 16,0 C 7,6 C 0,0 UV-I 0,0 C 56 % 89 % 0 % 1026,6 hPa 0,0 l/m 0,0 km/h (0 Bft) 0 min 0,0 km/h (0 Bft)
18.05.2010 01:20 16,0 C 7,6 C 0,0 UV-I 0,0 C 56 % 90 % 0 % 1026,6 hPa 0,0 l/m 0,0 km/h (0 Bft) 0 min 0,0 km/h (0 Bft)
18.05.2010 01:22 16,0 C 7,6 C 0,0 UV-I 0,0 C 56 % 90 % 0 % 1026,6 hPa 0,0 l/m 0,0 km/h (0 Bft) 0 min 0,0 km/h (0 Bft)
18.05.2010 01:26 16,0 C 7,6 C 0,0 UV-I 0,0 C 56 % 90 % 0 % 1026,6 hPa 0,0 l/m 0,0 km/h (0 Bft) 0 min 0,0 km/h (0 Bft)
18.05.2010 01:32 16,0 C 7,7 C 0,0 UV-I 0,0 C 56 % 90 % 0 % 1026,7 hPa 0,0 l/m 0,0 km/h (0 Bft) 0 min 0,0 km/h (0 Bft)
18.05.2010 01:34 16,0 C 7,7 C 0,0 UV-I 0,0 C 56 % 90 % 0 % 1026,7 hPa 0,0 l/m 0,0 km/h (0 Bft) 0 min 0,0 km/h (0 Bft)
18.05.2010 01:36 16,0 C 7,7 C 0,0 UV-I 0,0 C 56 % 90 % 0 % 1026,7 hPa 0,0 l/m 0,0 km/h (0 Bft) 0 min 0,0 km/h (0 Bft)
18.05.2010 01:38 15,8 C 7,7 C 0,0 UV-I 0,0 C 56 % 90 % 0 % 1026,7 hPa 0,0 l/m 0,0 km/h (0 Bft) 0 min 0,0 km/h (0 Bft)
18.05.2010 01:42 15,8 C 7,6 C 0,0 UV-I 0,0 C 56 % 90 % 0 % 1026,7 hPa 0,0 l/m 0,0 km/h (0 Bft) 0 min 0,0 km/h (0 Bft)
18.05.2010 01:46 15,8 C 7,6 C 0,0 UV-I 0,0 C 56 % 90 % 0 % 1026,7 hPa 0,0 l/m 0,0 km/h (0 Bft) 0 min 0,0 km/h (0 Bft)
18.05.2010 01:48 15,9 C 7,6 C 0,0 UV-I 0,0 C 56 % 90 % 0 % 1026,7 hPa 0,0 l/m 0,0 km/h (0 Bft) 0 min 0,0 km/h (0 Bft)
18.05.2010 01:50 15,9 C 7,5 C 0,0 UV-I 0,0 C 56 % 90 % 0 % 1026,7 hPa 0,0 l/m 0,0 km/h (0 Bft) 0 min 0,0 km/h (0 Bft)
18.05.2010 01:52 15,9 C 7,5 C 0,0 UV-I 0,0 C 56 % 90 % 0 % 1026,4 hPa 0,0 l/m 0,0 km/h (0 Bft) 0 min 0,0 km/h (0 Bft)
18.05.2010 01:54 15,9 C 7,5 C 0,0 UV-I 0,0 C 56 % 90 % 0 % 1026,4 hPa 0,0 l/m 0,0 km/h (0 Bft) 0 min 0,0 km/h (0 Bft)
18.05.2010 01:56 15,9 C 7,5 C 0,0 UV-I 0,0 C 56 % 90 % 0 % 1026,4 hPa 0,0 l/m 0,0 km/h (0 Bft) 0 min 0,0 km/h (0 Bft)
18.05.2010 01:58 15,9 C 7,4 C 0,0 UV-I 0,0 C 56 % 90 % 0 % 1026,4 hPa 0,0 l/m 0,0 km/h (0 Bft) 0 min 0,0 km/h (0 Bft)
18.05.2010 02:00 15,9 C 7,5 C 0,0 UV-I 0,0 C 56 % 90 % 0 % 1026,4 hPa 0,0 l/m 0,0 km/h (0 Bft) 0 min 0,0 km/h (0 Bft)
18.05.2010 02:02 15,8 C 7,4 C 0,0 UV-I 0,0 C 56 % 90 % 0 % 1026,4 hPa 0,0 l/m 0,0 km/h (0 Bft) 0 min 0,0 km/h (0 Bft)
18.05.2010 02:04 15,8 C 7,3 C 0,0 UV-I 0,0 C 56 % 90 % 0 % 1026,4 hPa 0,0 l/m 0,0 km/h (0 Bft) 0 min 0,0 km/h (0 Bft)
18.05.2010 02:06 15,8 C 7,3 C 0,0 UV-I 0,0 C 56 % 90 % 0 % 1026,4 hPa 0,0 l/m 0,0 km/h (0 Bft) 0 min 0,0 km/h (0 Bft)
18.05.2010 02:08 15,8 C 7,3 C 0,0 UV-I 0,0 C 56 % 90 % 0 % 1026,4 hPa 0,0 l/m 0,0 km/h (0 Bft) 0 min 0,0 km/h (0 Bft)
18.05.2010 02:12 15,8 C 7,3 C 0,0 UV-I 0,0 C 56 % 90 % 0 % 1026,4 hPa 0,0 l/m 0,0 km/h (0 Bft) 0 min 0,0 km/h (0 Bft)
18.05.2010 02:14 15,8 C 7,2 C 0,0 UV-I 0,0 C 56 % 90 % 0 % 1026,4 hPa 0,0 l/m 0,0 km/h (0 Bft) 0 min 0,0 km/h (0 Bft)
18.05.2010 02:16 15,8 C 7,2 C 0,0 UV-I 0,0 C 56 % 90 % 0 % 1026,4 hPa 0,0 l/m 0,0 km/h (0 Bft) 0 min 0,0 km/h (0 Bft)
18.05.2010 02:20 15,8 C 7,3 C 0,0 UV-I 0,0 C 57 % 91 % 0 % 1026,4 hPa 0,0 l/m 0,0 km/h (0 Bft) 0 min 0,0 km/h (0 Bft)
18.05.2010 02:22 15,8 C 7,2 C 0,0 UV-I 0,0 C 56 % 90 % 0 % 1026,4 hPa 0,0 l/m 0,0 km/h (0 Bft) 0 min 0,0 km/h (0 Bft)
18.05.2010 02:24 15,8 C 7,1 C 0,0 UV-I 0,0 C 56 % 90 % 0 % 1026,4 hPa 0,0 l/m 0,0 km/h (0 Bft) 0 min 0,0 km/h (0 Bft)
18.05.2010 02:26 15,8 C 7,1 C 0,0 UV-I 0,0 C 56 % 90 % 0 % 1026,4 hPa 0,0 l/m 0,0 km/h (0 Bft) 0 min 0,0 km/h (0 Bft)
18.05.2010 02:28 15,8 C 7,1 C 0,0 UV-I 0,0 C 56 % 90 % 0 % 1026,4 hPa 0,0 l/m 0,0 km/h (0 Bft) 0 min 0,0 km/h (0 Bft)
18.05.2010 02:30 15,8 C 7,1 C 0,0 UV-I 0,0 C 56 % 90 % 0 % 1026,4 hPa 0,0 l/m 0,0 km/h (0 Bft) 0 min 0,0 km/h (0 Bft)
18.05.2010 02:32 15,8 C 7,1 C 0,0 UV-I 0,0 C 57 % 90 % 0 % 1026,8 hPa 0,0 l/m 0,0 km/h (0 Bft) 0 min 0,0 km/h (0 Bft)
18.05.2010 02:34 15,8 C 7,1 C 0,0 UV-I 0,0 C 57 % 90 % 0 % 1026,8 hPa 0,0 l/m 0,0 km/h (0 Bft) 0 min 0,0 km/h (0 Bft)
18.05.2010 02:36 15,8 C 7,1 C 0,0 UV-I 0,0 C 57 % 90 % 0 % 1026,8 hPa 0,0 l/m 0,0 km/h (0 Bft) 0 min 0,0 km/h (0 Bft)
18.05.2010 02:38 15,6 C 7,1 C 0,0 UV-I 0,0 C 57 % 90 % 0 % 1026,8 hPa 0,0 l/m 0,0 km/h (0 Bft) 0 min 0,0 km/h (0 Bft)
18.05.2010 02:40 15,6 C 7,1 C 0,0 UV-I 0,0 C 57 % 90 % 0 % 1026,8 hPa 0,0 l/m 0,0 km/h (0 Bft) 0 min 0,0 km/h (0 Bft)
18.05.2010 02:42 15,8 C 7,1 C 0,0 UV-I 0,0 C 56 % 91 % 0 % 1026,8 hPa 0,0 l/m 0,0 km/h (0 Bft) 0 min 0,0 km/h (0 Bft)
18.05.2010 02:44 15,6 C 7,0 C 0,0 UV-I 0,0 C 57 % 90 % 0 % 1026,8 hPa 0,0 l/m 0,0 km/h (0 Bft) 0 min 0,0 km/h (0 Bft)
18.05.2010 02:46 15,6 C 6,9 C 0,0 UV-I 0,0 C 57 % 91 % 0 % 1026,8 hPa 0,0 l/m 0,0 km/h (0 Bft) 0 min 0,0 km/h (0 Bft)
18.05.2010 02:50 15,6 C 6,9 C 0,0 UV-I 0,0 C 57 % 91 % 0 % 1026,8 hPa 0,0 l/m 0,0 km/h (0 Bft) 0 min 0,0 km/h (0 Bft)
18.05.2010 02:54 15,6 C 6,8 C 0,0 UV-I 0,0 C 57 % 91 % 0 % 1026,6 hPa 0,0 l/m 0,0 km/h (0 Bft) 0 min 0,0 km/h (0 Bft)
18.05.2010 02:56 15,6 C 6,8 C 0,0 UV-I 0,0 C 57 % 91 % 0 % 1026,6 hPa 0,0 l/m 0,0 km/h (0 Bft) 0 min 3,2 km/h (1 Bft)
18.05.2010 02:58 15,6 C 6,9 C 0,0 UV-I 0,0 C 57 % 91 % 0 % 1026,6 hPa 0,0 l/m 0,0 km/h (0 Bft) 0 min 0,0 km/h (0 Bft)
18.05.2010 03:00 15,6 C 6,9 C 0,0 UV-I 0,0 C 57 % 91 % 0 % 1026,6 hPa 0,0 l/m 0,0 km/h (0 Bft) 0 min 0,0 km/h (0 Bft)
18.05.2010 03:02 15,7 C 6,8 C 0,0 UV-I 0,0 C 57 % 91 % 0 % 1026,6 hPa 0,0 l/m 0,0 km/h (0 Bft) 0 min 0,0 km/h (0 Bft)
18.05.2010 03:04 15,7 C 6,8 C 0,0 UV-I 0,0 C 57 % 91 % 0 % 1026,6 hPa 0,0 l/m 0,0 km/h (0 Bft) 0 min 0,0 km/h (0 Bft)
18.05.2010 03:06 15,7 C 6,7 C 0,0 UV-I 0,0 C 57 % 91 % 0 % 1026,6 hPa 0,0 l/m 0,0 km/h (0 Bft) 0 min 0,0 km/h (0 Bft)
18.05.2010 03:08 15,7 C 6,7 C 0,0 UV-I 0,0 C 57 % 91 % 0 % 1026,6 hPa 0,0 l/m 0,0 km/h (0 Bft) 0 min 0,0 km/h (0 Bft)
18.05.2010 03:10 15,7 C 6,7 C 0,0 UV-I 0,0 C 57 % 91 % 0 % 1026,6 hPa 0,0 l/m 0,0 km/h (0 Bft) 0 min 0,0 km/h (0 Bft)
18.05.2010 03:14 15,6 C 6,7 C 0,0 UV-I 0,0 C 57 % 91 % 0 % 1026,6 hPa 0,0 l/m 0,0 km/h (0 Bft) 0 min 0,0 km/h (0 Bft)
18.05.2010 03:16 15,6 C 6,7 C 0,0 UV-I 0,0 C 57 % 91 % 0 % 1026,6 hPa 0,0 l/m 0,0 km/h (0 Bft) 0 min 0,0 km/h (0 Bft)
18.05.2010 03:22 15,6 C 6,7 C 0,0 UV-I 0,0 C 57 % 92 % 0 % 1026,6 hPa 0,0 l/m 0,0 km/h (0 Bft) 0 min 0,0 km/h (0 Bft)
18.05.2010 03:24 15,6 C 6,7 C 0,0 UV-I 0,0 C 57 % 92 % 0 % 1026,6 hPa 0,0 l/m 0,0 km/h (0 Bft) 0 min 0,0 km/h (0 Bft)
18.05.2010 03:26 15,6 C 6,7 C 0,0 UV-I 0,0 C 57 % 92 % 0 % 1026,6 hPa 0,0 l/m 0,0 km/h (0 Bft) 0 min 0,0 km/h (0 Bft)
18.05.2010 03:30 15,6 C 6,7 C 0,0 UV-I 0,0 C 57 % 92 % 0 % 1026,6 hPa 0,0 l/m 0,0 km/h (0 Bft) 0 min 0,0 km/h (0 Bft)
18.05.2010 03:34 15,6 C 6,7 C 0,0 UV-I 0,0 C 57 % 92 % 0 % 1026,7 hPa 0,0 l/m 0,0 km/h (0 Bft) 0 min 0,0 km/h (0 Bft)
18.05.2010 03:36 15,6 C 6,7 C 0,0 UV-I 0,0 C 57 % 92 % 0 % 1026,7 hPa 0,0 l/m 0,0 km/h (0 Bft) 0 min 0,0 km/h (0 Bft)
18.05.2010 03:38 15,6 C 6,7 C 0,0 UV-I 0,0 C 57 % 92 % 0 % 1026,7 hPa 0,0 l/m 0,0 km/h (0 Bft) 0 min 0,0 km/h (0 Bft)
18.05.2010 03:40 15,6 C 6,7 C 0,0 UV-I 0,0 C 57 % 92 % 0 % 1026,7 hPa 0,0 l/m 0,0 km/h (0 Bft) 0 min 0,0 km/h (0 Bft)
18.05.2010 03:46 15,6 C 6,7 C 0,0 UV-I 0,0 C 57 % 92 % 0 % 1026,7 hPa 0,0 l/m 0,0 km/h (0 Bft) 0 min 3,5 km/h (1 Bft)
18.05.2010 03:48 15,6 C 6,7 C 0,0 UV-I 0,0 C 57 % 92 % 0 % 1026,7 hPa 0,0 l/m 0,0 km/h (0 Bft) 0 min 0,0 km/h (0 Bft)
18.05.2010 03:50 15,6 C 6,7 C 0,0 UV-I 0,0 C 57 % 92 % 0 % 1026,7 hPa 0,0 l/m 0,0 km/h (0 Bft) 0 min 0,0 km/h (0 Bft)
18.05.2010 03:52 15,6 C 6,7 C 0,0 UV-I 0,0 C 57 % 92 % 0 % 1026,9 hPa 0,0 l/m 0,0 km/h (0 Bft) 0 min 0,0 km/h (0 Bft)
18.05.2010 03:54 15,6 C 6,7 C 0,0 UV-I 0,0 C 57 % 92 % 0 % 1026,9 hPa 0,0 l/m 0,0 km/h (0 Bft) 0 min 0,0 km/h (0 Bft)
18.05.2010 03:58 15,6 C 6,5 C 0,0 UV-I 0,0 C 57 % 92 % 0 % 1026,9 hPa 0,0 l/m 0,0 km/h (0 Bft) 0 min 0,0 km/h (0 Bft)
18.05.2010 04:04 15,6 C 6,5 C 0,0 UV-I 0,0 C 57 % 92 % 0 % 1026,9 hPa 0,0 l/m 0,0 km/h (0 Bft) 0 min 0,0 km/h (0 Bft)
18.05.2010 04:06 15,6 C 6,4 C 0,0 UV-I 0,0 C 57 % 92 % 0 % 1026,9 hPa 0,0 l/m 0,0 km/h (0 Bft) 0 min 0,0 km/h (0 Bft)
18.05.2010 04:08 15,6 C 6,4 C 0,0 UV-I 0,0 C 57 % 92 % 0 % 1026,9 hPa 0,0 l/m 0,0 km/h (0 Bft) 0 min 0,0 km/h (0 Bft)
18.05.2010 04:10 15,4 C 6,5 C 0,0 UV-I 0,0 C 57 % 92 % 0 % 1026,9 hPa 0,0 l/m 0,0 km/h (0 Bft) 0 min 0,0 km/h (0 Bft)
18.05.2010 04:13 15,4 C 6,4 C 0,0 UV-I 0,0 C 57 % 92 % 0 % 1026,7 hPa 0,0 l/m 0,0 km/h (0 Bft) 0 min 0,0 km/h (0 Bft)
18.05.2010 04:18 15,4 C 6,3 C 0,0 UV-I 0,0 C 57 % 92 % 0 % 1026,7 hPa 0,0 l/m 0,0 km/h (0 Bft) 0 min 0,0 km/h (0 Bft)
18.05.2010 04:19 15,4 C 6,3 C 0,0 UV-I 0,0 C 57 % 92 % 0 % 1026,7 hPa 0,0 l/m 0,0 km/h (0 Bft) 0 min 0,0 km/h (0 Bft)
18.05.2010 04:22 15,4 C 6,2 C 0,0 UV-I 0,0 C 57 % 92 % 0 % 1026,7 hPa 0,0 l/m 0,0 km/h (0 Bft) 0 min 0,0 km/h (0 Bft)
18.05.2010 04:24 15,5 C 6,3 C 0,0 UV-I 0,0 C 57 % 92 % 0 % 1026,7 hPa 0,0 l/m 0,0 km/h (0 Bft) 0 min 0,0 km/h (0 Bft)
18.05.2010 04:26 15,5 C 6,2 C 0,0 UV-I 0,0 C 57 % 92 % 0 % 1026,7 hPa 0,0 l/m 0,0 km/h (0 Bft) 0 min 0,0 km/h (0 Bft)
18.05.2010 04:28 15,5 C 6,1 C 0,0 UV-I 0,0 C 57 % 92 % 0 % 1026,7 hPa 0,0 l/m 0,0 km/h (0 Bft) 0 min 0,0 km/h (0 Bft)
18.05.2010 04:30 15,5 C 6,1 C 0,0 UV-I 0,0 C 57 % 92 % 0 % 1026,7 hPa 0,0 l/m 0,0 km/h (0 Bft) 0 min 0,0 km/h (0 Bft)
18.05.2010 04:32 15,5 C 6,1 C 0,0 UV-I 0,0 C 57 % 92 % 0 % 1026,8 hPa 0,0 l/m 0,0 km/h (0 Bft) 0 min 0,0 km/h (0 Bft)
18.05.2010 04:34 15,5 C 6,0 C 0,0 UV-I 0,0 C 57 % 92 % 0 % 1026,8 hPa 0,0 l/m 0,0 km/h (0 Bft) 0 min 0,0 km/h (0 Bft)
18.05.2010 04:36 15,5 C 6,0 C 0,0 UV-I 0,0 C 57 % 92 % 0 % 1026,8 hPa 0,0 l/m 0,0 km/h (0 Bft) 0 min 0,0 km/h (0 Bft)
18.05.2010 04:38 15,3 C 6,1 C 0,0 UV-I 0,0 C 57 % 92 % 0 % 1026,8 hPa 0,0 l/m 0,0 km/h (0 Bft) 0 min 0,0 km/h (0 Bft)
18.05.2010 04:40 15,3 C 6,0 C 0,0 UV-I 0,0 C 57 % 92 % 0 % 1026,8 hPa 0,0 l/m 0,0 km/h (0 Bft) 0 min 0,0 km/h (0 Bft)
18.05.2010 04:42 15,3 C 6,0 C 0,0 UV-I 0,0 C 57 % 92 % 0 % 1026,8 hPa 0,0 l/m 0,0 km/h (0 Bft) 0 min 0,0 km/h (0 Bft)
18.05.2010 04:44 15,3 C 6,0 C 0,0 UV-I 0,0 C 57 % 92 % 0 % 1026,8 hPa 0,0 l/m 0,0 km/h (0 Bft) 0 min 0,0 km/h (0 Bft)
18.05.2010 04:46 15,3 C 5,9 C 0,0 UV-I 0,0 C 57 % 92 % 0 % 1026,8 hPa 0,0 l/m 0,0 km/h (0 Bft) 0 min 0,0 km/h (0 Bft)
18.05.2010 04:48 15,3 C 5,9 C 0,0 UV-I 0,0 C 57 % 92 % 0 % 1026,8 hPa 0,0 l/m 0,0 km/h (0 Bft) 0 min 0,0 km/h (0 Bft)
18.05.2010 04:50 15,4 C 5,9 C 0,0 UV-I 0,0 C 57 % 92 % 0 % 1026,8 hPa 0,0 l/m 0,0 km/h (0 Bft) 0 min 0,0 km/h (0 Bft)
18.05.2010 04:52 15,4 C 5,8 C 0,0 UV-I 0,0 C 57 % 91 % 0 % 1027,2 hPa 0,0 l/m 0,0 km/h (0 Bft) 0 min 0,0 km/h (0 Bft)
18.05.2010 04:54 15,4 C 5,9 C 0,0 UV-I 0,0 C 57 % 92 % 0 % 1027,2 hPa 0,0 l/m 0,0 km/h (0 Bft) 0 min 0,0 km/h (0 Bft)
18.05.2010 04:56 15,4 C 5,9 C 0,0 UV-I 0,0 C 57 % 92 % 0 % 1027,2 hPa 0,0 l/m 0,0 km/h (0 Bft) 0 min 0,0 km/h (0 Bft)
18.05.2010 04:58 15,4 C 5,8 C 0,0 UV-I 0,0 C 57 % 92 % 0 % 1027,2 hPa 0,0 l/m 0,0 km/h (0 Bft) 0 min 0,0 km/h (0 Bft)
18.05.2010 05:00 15,4 C 5,7 C 0,0 UV-I 0,0 C 57 % 92 % 0 % 1027,2 hPa 0,0 l/m 0,0 km/h (0 Bft) 0 min 0,0 km/h (0 Bft)
18.05.2010 05:02 15,4 C 5,7 C 0,0 UV-I 0,0 C 57 % 91 % 0 % 1027,2 hPa 0,0 l/m 0,0 km/h (0 Bft) 0 min 0,0 km/h (0 Bft)
18.05.2010 05:04 15,4 C 5,7 C 0,0 UV-I 0,0 C 57 % 92 % 0 % 1027,2 hPa 0,0 l/m 0,0 km/h (0 Bft) 0 min 0,0 km/h (0 Bft)
18.05.2010 05:06 15,4 C 5,6 C 0,0 UV-I 0,0 C 57 % 92 % 0 % 1027,2 hPa 0,0 l/m 0,0 km/h (0 Bft) 0 min 0,0 km/h (0 Bft)
18.05.2010 05:08 15,4 C 5,6 C 0,0 UV-I 0,0 C 57 % 92 % 0 % 1027,2 hPa 0,0 l/m 0,0 km/h (0 Bft) 0 min 0,0 km/h (0 Bft)
18.05.2010 05:10 15,4 C 5,6 C 0,0 UV-I 0,0 C 57 % 92 % 0 % 1027,2 hPa 0,0 l/m 0,0 km/h (0 Bft) 0 min 0,0 km/h (0 Bft)
18.05.2010 05:12 15,4 C 5,7 C 0,0 UV-I 0,0 C 57 % 92 % 0 % 1027,2 hPa 0,0 l/m 0,0 km/h (0 Bft) 0 min 0,0 km/h (0 Bft)
18.05.2010 05:14 15,2 C 5,6 C 0,0 UV-I 0,0 C 57 % 92 % 0 % 1027,2 hPa 0,0 l/m 0,0 km/h (0 Bft) 0 min 0,0 km/h (0 Bft)
18.05.2010 05:16 15,2 C 5,6 C 0,0 UV-I 0,0 C 57 % 92 % 0 % 1027,2 hPa 0,0 l/m 0,0 km/h (0 Bft) 0 min 0,0 km/h (0 Bft)
18.05.2010 05:18 15,2 C 5,5 C 0,0 UV-I 0,0 C 57 % 92 % 0 % 1027,2 hPa 0,0 l/m 0,0 km/h (0 Bft) 0 min 0,0 km/h (0 Bft)
18.05.2010 05:20 15,2 C 5,5 C 0,0 UV-I 0,0 C 57 % 92 % 0 % 1027,2 hPa 0,0 l/m 0,0 km/h (0 Bft) 0 min 0,0 km/h (0 Bft)
18.05.2010 05:22 15,2 C 5,5 C 0,0 UV-I 0,0 C 57 % 92 % 0 % 1027,2 hPa 0,0 l/m 0,0 km/h (0 Bft) 0 min 0,0 km/h (0 Bft)
18.05.2010 05:24 15,2 C 5,5 C 0,0 UV-I 0,0 C 57 % 92 % 0 % 1027,2 hPa 0,0 l/m 0,0 km/h (0 Bft) 0 min 0,0 km/h (0 Bft)
18.05.2010 05:26 15,2 C 5,5 C 0,0 UV-I 0,0 C 57 % 92 % 0 % 1027,2 hPa 0,0 l/m 0,0 km/h (0 Bft) 0 min 0,0 km/h (0 Bft)
18.05.2010 05:28 15,3 C 5,5 C 0,0 UV-I 0,0 C 57 % 92 % 0 % 1027,2 hPa 0,0 l/m 0,0 km/h (0 Bft) 0 min 0,0 km/h (0 Bft)
18.05.2010 05:30 15,3 C 5,4 C 0,0 UV-I 0,0 C 57 % 92 % 0 % 1027,2 hPa 0,0 l/m 0,0 km/h (0 Bft) 0 min 0,0 km/h (0 Bft)
18.05.2010 05:32 15,3 C 5,3 C 0,0 UV-I 0,0 C 57 % 92 % 0 % 1027,2 hPa 0,0 l/m 0,0 km/h (0 Bft) 0 min 0,0 km/h (0 Bft)
18.05.2010 05:34 15,3 C 5,4 C 0,0 UV-I 0,0 C 57 % 92 % 0 % 1027,2 hPa 0,0 l/m 0,0 km/h (0 Bft) 0 min 0,0 km/h (0 Bft)
18.05.2010 05:36 15,1 C 5,3 C 0,0 UV-I 0,0 C 57 % 92 % 0 % 1027,2 hPa 0,0 l/m 0,0 km/h (0 Bft) 0 min 0,0 km/h (0 Bft)
18.05.2010 05:38 15,3 C 5,3 C 0,0 UV-I 0,0 C 57 % 92 % 0 % 1027,2 hPa 0,0 l/m 0,0 km/h (0 Bft) 0 min 0,0 km/h (0 Bft)
18.05.2010 05:40 15,1 C 5,3 C 0,0 UV-I 0,0 C 57 % 92 % 0 % 1027,2 hPa 0,0 l/m 0,0 km/h (0 Bft) 0 min 0,0 km/h (0 Bft)
18.05.2010 05:42 15,3 C 5,2 C 0,0 UV-I 0,0 C 57 % 92 % 0 % 1027,2 hPa 0,0 l/m 0,0 km/h (0 Bft) 0 min 0,0 km/h (0 Bft)
18.05.2010 05:44 15,1 C 5,3 C 0,0 UV-I 0,0 C 57 % 92 % 0 % 1027,2 hPa 0,0 l/m 0,0 km/h (0 Bft) 0 min 0,0 km/h (0 Bft)
18.05.2010 05:46 15,1 C 5,2 C 0,0 UV-I 0,0 C 57 % 92 % 0 % 1027,2 hPa 0,0 l/m 0,0 km/h (0 Bft) 0 min 0,0 km/h (0 Bft)
18.05.2010 05:48 15,1 C 5,1 C 0,0 UV-I 0,0 C 57 % 92 % 0 % 1027,2 hPa 0,0 l/m 0,0 km/h (0 Bft) 0 min 0,0 km/h (0 Bft)
18.05.2010 05:50 15,1 C 5,1 C 0,0 UV-I 0,0 C 57 % 92 % 0 % 1027,2 hPa 0,0 l/m 0,0 km/h (0 Bft) 0 min 0,0 km/h (0 Bft)
18.05.2010 05:52 15,1 C 5,1 C 0,0 UV-I 0,0 C 57 % 92 % 0 % 1027,4 hPa 0,0 l/m 0,0 km/h (0 Bft) 0 min 0,0 km/h (0 Bft)
18.05.2010 05:54 15,2 C 5,1 C 0,0 UV-I 0,0 C 57 % 92 % 0 % 1027,4 hPa 0,0 l/m 0,0 km/h (0 Bft) 0 min 0,0 km/h (0 Bft)
18.05.2010 05:56 15,2 C 5,0 C 0,0 UV-I 0,0 C 57 % 92 % 0 % 1027,4 hPa 0,0 l/m 0,0 km/h (0 Bft) 0 min 0,0 km/h (0 Bft)
18.05.2010 05:58 15,1 C 5,0 C 0,0 UV-I 0,0 C 57 % 92 % 0 % 1027,4 hPa 0,0 l/m 0,0 km/h (0 Bft) 0 min 0,0 km/h (0 Bft)
18.05.2010 06:00 15,2 C 4,9 C 0,0 UV-I 0,0 C 57 % 92 % 0 % 1027,4 hPa 0,0 l/m 0,0 km/h (0 Bft) 0 min 0,0 km/h (0 Bft)
18.05.2010 06:02 15,2 C 4,9 C 0,0 UV-I 0,0 C 57 % 92 % 0 % 1027,4 hPa 0,0 l/m 0,0 km/h (0 Bft) 0 min 0,0 km/h (0 Bft)
18.05.2010 06:04 15,2 C 5,0 C 0,0 UV-I 0,0 C 57 % 92 % 0 % 1027,4 hPa 0,0 l/m 0,0 km/h (0 Bft) 0 min 0,0 km/h (0 Bft)
18.05.2010 06:06 15,2 C 5,0 C 0,0 UV-I 0,0 C 57 % 93 % 0 % 1027,4 hPa 0,0 l/m 0,0 km/h (0 Bft) 0 min 0,0 km/h (0 Bft)
18.05.2010 06:08 15,2 C 4,9 C 0,0 UV-I 0,0 C 57 % 93 % 0 % 1027,4 hPa 0,0 l/m 0,0 km/h (0 Bft) 0 min 0,0 km/h (0 Bft)
18.05.2010 06:10 15,2 C 4,9 C 0,0 UV-I 0,0 C 57 % 93 % 0 % 1027,4 hPa 0,0 l/m 0,0 km/h (0 Bft) 0 min 0,0 km/h (0 Bft)
18.05.2010 06:12 15,2 C 5,0 C 0,0 UV-I 0,0 C 57 % 93 % 0 % 1027,2 hPa 0,0 l/m 0,0 km/h (0 Bft) 0 min 0,0 km/h (0 Bft)
18.05.2010 06:14 15,2 C 4,9 C 0,0 UV-I 0,0 C 57 % 93 % 0 % 1027,2 hPa 0,0 l/m 0,0 km/h (0 Bft) 0 min 0,0 km/h (0 Bft)
18.05.2010 06:16 15,2 C 5,1 C 0,0 UV-I 0,0 C 57 % 93 % 0 % 1027,2 hPa 0,0 l/m 0,0 km/h (0 Bft) 0 min 0,0 km/h (0 Bft)
18.05.2010 06:18 15,2 C 4,9 C 0,0 UV-I 0,0 C 57 % 93 % 0 % 1027,2 hPa 0,0 l/m 0,0 km/h (0 Bft) 0 min 0,0 km/h (0 Bft)
18.05.2010 06:20 15,2 C 4,9 C 0,0 UV-I 0,0 C 57 % 93 % 0 % 1027,2 hPa 0,0 l/m 0,0 km/h (0 Bft) 0 min 0,0 km/h (0 Bft)
18.05.2010 06:22 15,2 C 4,9 C 0,0 UV-I 0,0 C 57 % 93 % 0 % 1027,2 hPa 0,0 l/m 0,0 km/h (0 Bft) 0 min 0,0 km/h (0 Bft)
18.05.2010 06:24 15,2 C 4,9 C 0,0 UV-I 0,0 C 57 % 93 % 0 % 1027,2 hPa 0,0 l/m 0,0 km/h (0 Bft) 0 min 0,0 km/h (0 Bft)
18.05.2010 06:26 15,2 C 5,0 C 0,0 UV-I 0,0 C 57 % 93 % 0 % 1027,2 hPa 0,0 l/m 0,0 km/h (0 Bft) 0 min 0,0 km/h (0 Bft)
18.05.2010 06:28 15,2 C 4,9 C 0,0 UV-I 0,0 C 57 % 93 % 0 % 1027,2 hPa 0,0 l/m 0,0 km/h (0 Bft) 0 min 0,0 km/h (0 Bft)
18.05.2010 06:30 15,2 C 5,0 C 0,0 UV-I 0,0 C 57 % 93 % 0 % 1027,2 hPa 0,0 l/m 0,0 km/h (0 Bft) 0 min 0,0 km/h (0 Bft)
18.05.2010 06:32 15,2 C 5,1 C 0,1 UV-I 0,0 C 57 % 93 % 0 % 1027,6 hPa 0,0 l/m 0,0 km/h (0 Bft) 0 min 0,0 km/h (0 Bft)
18.05.2010 06:34 15,2 C 5,1 C 0,1 UV-I 0,0 C 57 % 93 % 0 % 1027,6 hPa 0,0 l/m 0,0 km/h (0 Bft) 0 min 0,0 km/h (0 Bft)
18.05.2010 06:36 15,2 C 5,1 C 0,1 UV-I 0,0 C 57 % 93 % 0 % 1027,6 hPa 0,0 l/m 0,0 km/h (0 Bft) 0 min 0,0 km/h (0 Bft)
18.05.2010 06:38 15,2 C 5,1 C 0,1 UV-I 0,0 C 57 % 93 % 0 % 1027,6 hPa 0,0 l/m 0,0 km/h (0 Bft) 0 min 0,0 km/h (0 Bft)
18.05.2010 06:40 15,1 C 5,1 C 0,1 UV-I 0,0 C 57 % 93 % 0 % 1027,6 hPa 0,0 l/m 0,0 km/h (0 Bft) 0 min 0,0 km/h (0 Bft)
18.05.2010 06:42 15,2 C 5,1 C 0,1 UV-I 0,0 C 57 % 93 % 0 % 1027,6 hPa 0,0 l/m 0,0 km/h (0 Bft) 0 min 0,0 km/h (0 Bft)
18.05.2010 06:44 15,2 C 5,2 C 0,1 UV-I 0,0 C 57 % 93 % 0 % 1027,6 hPa 0,0 l/m 0,0 km/h (0 Bft) 0 min 0,0 km/h (0 Bft)
18.05.2010 06:46 15,2 C 5,2 C 0,2 UV-I 0,0 C 57 % 93 % 0 % 1027,6 hPa 0,0 l/m 0,0 km/h (0 Bft) 0 min 0,0 km/h (0 Bft)
18.05.2010 06:48 15,2 C 5,2 C 0,2 UV-I 0,0 C 57 % 93 % 0 % 1027,6 hPa 0,0 l/m 0,0 km/h (0 Bft) 0 min 0,0 km/h (0 Bft)
18.05.2010 06:52 15,2 C 5,3 C 0,2 UV-I 0,0 C 57 % 93 % 0 % 1027,6 hPa 0,0 l/m 0,0 km/h (0 Bft) 0 min 0,0 km/h (0 Bft)
18.05.2010 06:54 15,2 C 5,3 C 0,2 UV-I 0,0 C 57 % 93 % 0 % 1027,6 hPa 0,0 l/m 0,0 km/h (0 Bft) 0 min 0,0 km/h (0 Bft)
18.05.2010 06:56 15,1 C 5,3 C 0,4 UV-I 0,0 C 57 % 93 % 0 % 1027,6 hPa 0,0 l/m 0,0 km/h (0 Bft) 0 min 0,0 km/h (0 Bft)
18.05.2010 06:58 15,1 C 5,5 C 0,4 UV-I 0,0 C 57 % 93 % 0 % 1027,6 hPa 0,0 l/m 0,0 km/h (0 Bft) 0 min 0,0 km/h (0 Bft)
18.05.2010 07:00 15,2 C 5,4 C 0,4 UV-I 0,0 C 57 % 93 % 0 % 1027,6 hPa 0,0 l/m 0,0 km/h (0 Bft) 0 min 0,0 km/h (0 Bft)
18.05.2010 07:02 15,1 C 5,5 C 0,5 UV-I 0,0 C 57 % 93 % 0 % 1027,6 hPa 0,0 l/m 0,0 km/h (0 Bft) 0 min 0,0 km/h (0 Bft)
18.05.2010 07:04 15,1 C 5,5 C 0,5 UV-I 0,0 C 57 % 93 % 0 % 1027,6 hPa 0,0 l/m 0,0 km/h (0 Bft) 0 min 0,0 km/h (0 Bft)
18.05.2010 07:08 15,1 C 5,6 C 0,6 UV-I 0,0 C 57 % 94 % 0 % 1027,6 hPa 0,0 l/m 0,0 km/h (0 Bft) 0 min 0,0 km/h (0 Bft)
18.05.2010 07:10 15,1 C 5,7 C 0,6 UV-I 0,0 C 57 % 94 % 0 % 1027,6 hPa 0,0 l/m 0,0 km/h (0 Bft) 0 min 0,0 km/h (0 Bft)
18.05.2010 07:12 15,2 C 5,7 C 0,7 UV-I 0,0 C 57 % 94 % 0 % 1027,8 hPa 0,0 l/m 0,0 km/h (0 Bft) 0 min 0,0 km/h (0 Bft)
18.05.2010 07:14 15,1 C 5,7 C 0,7 UV-I 0,0 C 57 % 94 % 0 % 1027,8 hPa 0,0 l/m 0,0 km/h (0 Bft) 0 min 0,0 km/h (0 Bft)
18.05.2010 07:16 15,1 C 5,9 C 0,7 UV-I 0,0 C 57 % 94 % 0 % 1027,8 hPa 0,0 l/m 0,0 km/h (0 Bft) 0 min 0,0 km/h (0 Bft)
18.05.2010 07:18 15,2 C 5,9 C 0,7 UV-I 0,0 C 57 % 94 % 0 % 1027,8 hPa 0,0 l/m 0,0 km/h (0 Bft) 0 min 0,0 km/h (0 Bft)
18.05.2010 07:20 15,2 C 5,9 C 0,7 UV-I 0,0 C 57 % 94 % 0 % 1027,8 hPa 0,0 l/m 0,0 km/h (0 Bft) 0 min 0,0 km/h (0 Bft)
18.05.2010 07:22 15,2 C 6,0 C 0,9 UV-I 0,0 C 57 % 94 % 0 % 1027,8 hPa 0,0 l/m 0,0 km/h (0 Bft) 0 min 0,0 km/h (0 Bft)
18.05.2010 07:24 15,2 C 6,0 C 0,9 UV-I 0,0 C 57 % 94 % 0 % 1027,8 hPa 0,0 l/m 0,0 km/h (0 Bft) 0 min 0,0 km/h (0 Bft)
18.05.2010 07:26 15,2 C 6,0 C 0,8 UV-I 0,0 C 57 % 94 % 0 % 1027,8 hPa 0,0 l/m 0,0 km/h (0 Bft) 0 min 0,0 km/h (0 Bft)
18.05.2010 07:28 15,2 C 6,1 C 0,8 UV-I 0,0 C 57 % 94 % 0 % 1027,8 hPa 0,0 l/m 0,0 km/h (0 Bft) 0 min 0,0 km/h (0 Bft)
18.05.2010 07:30 15,2 C 6,1 C 0,8 UV-I 0,0 C 57 % 94 % 0 % 1027,8 hPa 0,0 l/m 0,0 km/h (0 Bft) 0 min 0,0 km/h (0 Bft)
18.05.2010 07:32 15,2 C 6,1 C 1,0 UV-I 0,0 C 57 % 94 % 0 % 1028,1 hPa 0,0 l/m 0,0 km/h (0 Bft) 0 min 0,0 km/h (0 Bft)
18.05.2010 07:34 15,2 C 6,3 C 1,0 UV-I 0,0 C 57 % 94 % 0 % 1028,1 hPa 0,0 l/m 0,0 km/h (0 Bft) 0 min 0,0 km/h (0 Bft)
18.05.2010 07:36 15,2 C 6,3 C 0,9 UV-I 0,0 C 57 % 94 % 0 % 1028,1 hPa 0,0 l/m 0,0 km/h (0 Bft) 0 min 0,0 km/h (0 Bft)
18.05.2010 07:38 15,1 C 6,4 C 0,9 UV-I 0,0 C 57 % 94 % 0 % 1028,1 hPa 0,0 l/m 0,0 km/h (0 Bft) 0 min 0,0 km/h (0 Bft)
18.05.2010 07:40 15,2 C 6,3 C 0,9 UV-I 0,0 C 57 % 94 % 0 % 1028,1 hPa 0,0 l/m 0,0 km/h (0 Bft) 0 min 0,0 km/h (0 Bft)
18.05.2010 07:42 15,2 C 6,5 C 1,2 UV-I 0,0 C 57 % 94 % 0 % 1028,1 hPa 0,0 l/m 0,4 km/h (0 Bft) 0 min 6,4 km/h (2 Bft)
18.05.2010 07:44 15,2 C 6,4 C 1,2 UV-I 0,0 C 57 % 94 % 0 % 1028,1 hPa 0,0 l/m 0,4 km/h (0 Bft) 0 min 0,0 km/h (0 Bft)
18.05.2010 07:46 15,2 C 6,6 C 1,3 UV-I 0,0 C 57 % 94 % 0 % 1028,1 hPa 0,0 l/m 0,4 km/h (0 Bft) 0 min 0,0 km/h (0 Bft)
18.05.2010 07:48 15,2 C 6,7 C 1,3 UV-I 0,0 C 57 % 94 % 0 % 1028,1 hPa 0,0 l/m 0,4 km/h (0 Bft) 0 min 0,0 km/h (0 Bft)
18.05.2010 07:50 15,2 C 6,8 C 1,3 UV-I 0,0 C 57 % 94 % 0 % 1028,1 hPa 0,0 l/m 0,4 km/h (0 Bft) 0 min 6,4 km/h (2 Bft)
18.05.2010 07:52 15,2 C 6,8 C 1,4 UV-I 0,0 C 57 % 94 % 0 % 1028,2 hPa 0,0 l/m 0,4 km/h (0 Bft) 0 min 0,0 km/h (0 Bft)
18.05.2010 07:54 15,2 C 6,9 C 1,4 UV-I 0,0 C 57 % 94 % 0 % 1028,2 hPa 0,0 l/m 0,4 km/h (0 Bft) 0 min 0,0 km/h (0 Bft)
18.05.2010 07:56 15,2 C 6,9 C 1,6 UV-I 0,0 C 57 % 94 % 0 % 1028,2 hPa 0,0 l/m 0,8 km/h (0 Bft) 0 min 0,0 km/h (0 Bft)
18.05.2010 07:58 15,2 C 7,1 C 1,6 UV-I 0,0 C 57 % 95 % 0 % 1028,2 hPa 0,0 l/m 1,6 km/h (1 Bft) 0 min 7,7 km/h (2 Bft)
18.05.2010 08:00 15,2 C 7,1 C 1,6 UV-I 0,0 C 57 % 95 % 0 % 1028,2 hPa 0,0 l/m 2,0 km/h (1 Bft) 0 min 8,4 km/h (2 Bft)
18.05.2010 08:02 15,2 C 7,2 C 1,8 UV-I 0,0 C 57 % 95 % 0 % 1028,2 hPa 0,0 l/m 2,0 km/h (1 Bft) 0 min 4,5 km/h (1 Bft)
18.05.2010 08:04 15,2 C 7,2 C 1,8 UV-I 0,1 C 57 % 95 % 3 % 1028,2 hPa 0,0 l/m 2,4 km/h (1 Bft) 0 min 3,5 km/h (1 Bft)
18.05.2010 08:06 15,2 C 7,3 C 1,8 UV-I 0,1 C 57 % 95 % 3 % 1028,2 hPa 0,0 l/m 2,0 km/h (1 Bft) 0 min 3,5 km/h (1 Bft)
18.05.2010 08:08 15,2 C 7,5 C 1,8 UV-I 0,0 C 57 % 95 % 0 % 1028,2 hPa 0,0 l/m 1,6 km/h (1 Bft) 0 min 4,2 km/h (1 Bft)
18.05.2010 08:10 15,2 C 7,4 C 1,8 UV-I 0,2 C 57 % 95 % 6 % 1028,2 hPa 0,0 l/m 1,2 km/h (1 Bft) 0 min 0,0 km/h (0 Bft)
18.05.2010 08:12 15,1 C 7,5 C 1,8 UV-I 0,1 C 57 % 95 % 3 % 1028,4 hPa 0,0 l/m 1,6 km/h (1 Bft) 0 min 6,1 km/h (2 Bft)
18.05.2010 08:14 15,1 C 7,6 C 1,8 UV-I 0,2 C 57 % 95 % 6 % 1028,4 hPa 0,0 l/m 1,6 km/h (1 Bft) 0 min 0,0 km/h (0 Bft)
18.05.2010 08:16 15,1 C 7,7 C 1,9 UV-I 0,2 C 57 % 95 % 6 % 1028,4 hPa 0,0 l/m 2,0 km/h (1 Bft) 0 min 5,8 km/h (2 Bft)
18.05.2010 08:18 15,1 C 7,9 C 1,9 UV-I 0,2 C 57 % 95 % 6 % 1028,4 hPa 0,0 l/m 2,4 km/h (1 Bft) 0 min 5,8 km/h (2 Bft)
18.05.2010 08:20 15,1 C 7,9 C 1,9 UV-I 0,6 C 57 % 94 % 17 % 1028,4 hPa 0,0 l/m 2,0 km/h (1 Bft) 0 min 0,0 km/h (0 Bft)
18.05.2010 08:22 15,1 C 8,1 C 2,1 UV-I 0,9 C 57 % 94 % 26 % 1028,4 hPa 0,0 l/m 1,6 km/h (1 Bft) 0 min 0,0 km/h (0 Bft)
18.05.2010 08:24 15,3 C 8,1 C 2,1 UV-I 1,8 C 57 % 94 % 51 % 1028,4 hPa 0,0 l/m 2,0 km/h (1 Bft) 0 min 7,1 km/h (2 Bft)
18.05.2010 08:26 15,3 C 8,2 C 2,2 UV-I 2,0 C 57 % 94 % 57 % 1028,4 hPa 0,0 l/m 2,4 km/h (1 Bft) 0 min 0,0 km/h (0 Bft)
18.05.2010 08:28 15,3 C 8,3 C 2,2 UV-I 2,4 C 57 % 94 % 69 % 1028,4 hPa 0,0 l/m 2,4 km/h (1 Bft) 0 min 4,2 km/h (1 Bft)
18.05.2010 08:30 15,3 C 8,4 C 2,2 UV-I 2,7 C 57 % 94 % 77 % 1028,4 hPa 0,0 l/m 2,0 km/h (1 Bft) 0 min 0,0 km/h (0 Bft)
18.05.2010 08:32 15,2 C 8,4 C 2,1 UV-I 3,5 C 57 % 94 % 100 % 1028,4 hPa 0,0 l/m 2,8 km/h (1 Bft) 2 min 0,0 km/h (0 Bft)
18.05.2010 08:34 15,2 C 8,4 C 2,1 UV-I 4,3 C 57 % 94 % 100 % 1028,4 hPa 0,0 l/m 2,0 km/h (1 Bft) 2 min 0,0 km/h (0 Bft)
18.05.2010 08:36 15,2 C 8,5 C 1,8 UV-I 4,7 C 57 % 94 % 100 % 1028,4 hPa 0,0 l/m 1,6 km/h (1 Bft) 2 min 3,5 km/h (1 Bft)
18.05.2010 08:40 15,4 C 8,6 C 1,8 UV-I 4,8 C 57 % 93 % 100 % 1028,4 hPa 0,0 l/m 4,0 km/h (1 Bft) 2 min 13,2 km/h (3 Bft)
18.05.2010 08:42 15,4 C 8,6 C 2,4 UV-I 4,5 C 57 % 93 % 100 % 1028,4 hPa 0,0 l/m 3,6 km/h (1 Bft) 2 min 4,2 km/h (1 Bft)
18.05.2010 08:44 15,4 C 8,6 C 2,4 UV-I 4,2 C 57 % 93 % 100 % 1028,4 hPa 0,0 l/m 5,2 km/h (1 Bft) 2 min 8,7 km/h (2 Bft)
18.05.2010 08:46 15,4 C 8,5 C 2,3 UV-I 3,6 C 57 % 93 % 100 % 1028,4 hPa 0,0 l/m 5,2 km/h (1 Bft) 2 min 5,8 km/h (2 Bft)
18.05.2010 08:48 15,4 C 8,4 C 2,3 UV-I 3,2 C 57 % 92 % 91 % 1028,4 hPa 0,0 l/m 4,8 km/h (1 Bft) 2 min 3,2 km/h (1 Bft)
18.05.2010 08:50 15,4 C 8,4 C 2,3 UV-I 2,8 C 57 % 92 % 80 % 1028,4 hPa 0,0 l/m 3,6 km/h (1 Bft) 0 min 4,2 km/h (1 Bft)
18.05.2010 08:52 15,3 C 8,4 C 2,4 UV-I 2,6 C 57 % 92 % 74 % 1028,6 hPa 0,0 l/m 2,8 km/h (1 Bft) 0 min 0,0 km/h (0 Bft)
18.05.2010 08:54 15,3 C 8,5 C 2,4 UV-I 2,6 C 57 % 92 % 74 % 1028,6 hPa 0,0 l/m 4,8 km/h (1 Bft) 0 min 4,8 km/h (1 Bft)
18.05.2010 09:00 15,5 C 8,5 C 3,1 UV-I 3,0 C 57 % 92 % 86 % 1028,6 hPa 0,0 l/m 4,8 km/h (1 Bft) 2 min 14,5 km/h (3 Bft)
18.05.2010 09:02 15,5 C 8,5 C 2,9 UV-I 2,7 C 57 % 92 % 77 % 1028,6 hPa 0,0 l/m 5,2 km/h (1 Bft) 0 min 6,1 km/h (2 Bft)
18.05.2010 09:04 15,5 C 8,5 C 2,9 UV-I 2,8 C 57 % 92 % 80 % 1028,6 hPa 0,0 l/m 4,4 km/h (1 Bft) 0 min 4,8 km/h (1 Bft)
18.05.2010 09:06 15,5 C 8,7 C 3,9 UV-I 2,8 C 57 % 92 % 80 % 1028,6 hPa 0,0 l/m 3,2 km/h (1 Bft) 0 min 0,0 km/h (0 Bft)
18.05.2010 09:08 15,5 C 8,7 C 3,9 UV-I 3,1 C 57 % 92 % 89 % 1028,6 hPa 0,0 l/m 3,2 km/h (1 Bft) 2 min 0,0 km/h (0 Bft)
18.05.2010 09:10 15,4 C 8,7 C 3,9 UV-I 3,1 C 57 % 92 % 89 % 1028,6 hPa 0,0 l/m 2,8 km/h (1 Bft) 2 min 4,8 km/h (1 Bft)
18.05.2010 09:14 15,6 C 8,9 C 3,2 UV-I 2,6 C 57 % 92 % 74 % 1028,9 hPa 0,0 l/m 2,0 km/h (1 Bft) 0 min 4,8 km/h (1 Bft)
18.05.2010 09:16 15,6 C 8,8 C 2,7 UV-I 2,6 C 57 % 92 % 74 % 1028,9 hPa 0,0 l/m 1,6 km/h (1 Bft) 0 min 6,1 km/h (2 Bft)
18.05.2010 09:18 15,6 C 8,9 C 2,7 UV-I 2,5 C 57 % 92 % 71 % 1028,9 hPa 0,0 l/m 1,6 km/h (1 Bft) 0 min 0,0 km/h (0 Bft)
18.05.2010 09:20 15,6 C 8,9 C 2,7 UV-I 2,6 C 57 % 92 % 74 % 1028,9 hPa 0,0 l/m 1,6 km/h (1 Bft) 0 min 0,0 km/h (0 Bft)
18.05.2010 09:22 15,6 C 9,0 C 4,4 UV-I 3,1 C 57 % 92 % 89 % 1028,9 hPa 0,0 l/m 1,2 km/h (1 Bft) 2 min 0,0 km/h (0 Bft)
18.05.2010 09:24 15,6 C 9,1 C 4,4 UV-I 3,2 C 57 % 92 % 91 % 1028,9 hPa 0,0 l/m 1,6 km/h (1 Bft) 2 min 5,5 km/h (1 Bft)
18.05.2010 09:28 15,6 C 9,1 C 3,7 UV-I 3,2 C 57 % 90 % 91 % 1028,9 hPa 0,0 l/m 2,0 km/h (1 Bft) 2 min 4,2 km/h (1 Bft)
18.05.2010 09:30 15,6 C 9,1 C 3,7 UV-I 3,2 C 57 % 90 % 91 % 1028,9 hPa 0,0 l/m 1,6 km/h (1 Bft) 2 min 0,0 km/h (0 Bft)
18.05.2010 09:32 15,6 C 9,2 C 5,1 UV-I 3,2 C 57 % 91 % 91 % 1029,1 hPa 0,0 l/m 2,0 km/h (1 Bft) 2 min 5,8 km/h (2 Bft)
18.05.2010 09:34 15,6 C 9,4 C 5,1 UV-I 3,8 C 57 % 90 % 100 % 1029,1 hPa 0,0 l/m 2,8 km/h (1 Bft) 2 min 6,4 km/h (2 Bft)
18.05.2010 09:36 15,7 C 9,5 C 9,6 UV-I 4,6 C 57 % 90 % 100 % 1029,1 hPa 0,0 l/m 2,8 km/h (1 Bft) 2 min 8,4 km/h (2 Bft)
18.05.2010 09:38 15,6 C 9,5 C 9,6 UV-I 5,3 C 57 % 90 % 100 % 1029,1 hPa 0,0 l/m 3,2 km/h (1 Bft) 2 min 5,5 km/h (1 Bft)
18.05.2010 09:40 15,7 C 9,6 C 9,6 UV-I 4,7 C 57 % 90 % 100 % 1029,1 hPa 0,0 l/m 4,8 km/h (1 Bft) 2 min 10,3 km/h (2 Bft)
18.05.2010 09:44 15,7 C 9,7 C 4,6 UV-I 4,4 C 57 % 88 % 100 % 1029,1 hPa 0,0 l/m 4,8 km/h (1 Bft) 2 min 6,8 km/h (2 Bft)
18.05.2010 09:46 15,7 C 9,9 C 10,0 UV-I 4,9 C 57 % 88 % 100 % 1029,1 hPa 0,0 l/m 5,2 km/h (1 Bft) 2 min 0,0 km/h (0 Bft)
18.05.2010 09:48 15,7 C 9,9 C 10,0 UV-I 5,3 C 57 % 88 % 100 % 1029,1 hPa 0,0 l/m 4,4 km/h (1 Bft) 2 min 3,5 km/h (1 Bft)
18.05.2010 09:50 15,6 C 10,1 C 10,0 UV-I 5,8 C 57 % 88 % 100 % 1029,1 hPa 0,0 l/m 3,6 km/h (1 Bft) 2 min 3,2 km/h (1 Bft)
18.05.2010 09:52 15,6 C 10,2 C 11,1 UV-I 6,4 C 57 % 88 % 100 % 1029,0 hPa 0,0 l/m 3,6 km/h (1 Bft) 2 min 0,0 km/h (0 Bft)
18.05.2010 09:54 15,6 C 10,4 C 11,1 UV-I 6,6 C 57 % 88 % 100 % 1029,0 hPa 0,0 l/m 3,2 km/h (1 Bft) 2 min 6,8 km/h (2 Bft)
18.05.2010 09:56 15,6 C 10,4 C 11,1 UV-I 6,8 C 57 % 87 % 100 % 1029,0 hPa 0,0 l/m 2,8 km/h (1 Bft) 2 min 9,0 km/h (2 Bft)
18.05.2010 09:58 15,6 C 10,5 C 11,1 UV-I 6,7 C 56 % 86 % 100 % 1029,0 hPa 0,0 l/m 3,6 km/h (1 Bft) 2 min 6,8 km/h (2 Bft)
18.05.2010 10:00 15,6 C 10,4 C 11,1 UV-I 6,9 C 57 % 86 % 100 % 1029,0 hPa 0,0 l/m 3,6 km/h (1 Bft) 2 min 0,0 km/h (0 Bft)
18.05.2010 10:02 15,6 C 10,5 C 10,6 UV-I 6,7 C 56 % 83 % 100 % 1029,0 hPa 0,0 l/m 4,4 km/h (1 Bft) 2 min 10,6 km/h (2 Bft)
18.05.2010 10:04 15,8 C 10,7 C 10,6 UV-I 6,3 C 57 % 82 % 100 % 1029,0 hPa 0,0 l/m 4,8 km/h (1 Bft) 2 min 12,9 km/h (3 Bft)
18.05.2010 10:06 15,8 C 10,7 C 13,0 UV-I 6,6 C 56 % 81 % 100 % 1029,0 hPa 0,0 l/m 5,2 km/h (1 Bft) 2 min 5,1 km/h (1 Bft)
18.05.2010 10:08 15,8 C 10,7 C 13,0 UV-I 6,9 C 56 % 82 % 100 % 1029,0 hPa 0,0 l/m 5,6 km/h (1 Bft) 2 min 7,4 km/h (2 Bft)
18.05.2010 10:12 15,8 C 10,7 C 12,9 UV-I 7,3 C 56 % 81 % 100 % 1028,9 hPa 0,0 l/m 6,8 km/h (2 Bft) 2 min 4,5 km/h (1 Bft)
18.05.2010 10:14 15,8 C 10,8 C 12,9 UV-I 7,3 C 56 % 82 % 100 % 1028,9 hPa 0,0 l/m 6,8 km/h (2 Bft) 2 min 10,0 km/h (2 Bft)
18.05.2010 10:16 15,8 C 10,9 C 12,4 UV-I 7,3 C 56 % 82 % 100 % 1028,9 hPa 0,0 l/m 6,0 km/h (2 Bft) 2 min 4,5 km/h (1 Bft)
18.05.2010 10:18 15,8 C 11,0 C 12,4 UV-I 7,1 C 56 % 80 % 100 % 1028,9 hPa 0,0 l/m 7,2 km/h (2 Bft) 2 min 9,3 km/h (2 Bft)
18.05.2010 10:20 15,8 C 11,1 C 12,4 UV-I 6,9 C 56 % 80 % 100 % 1028,9 hPa 0,0 l/m 6,8 km/h (2 Bft) 2 min 16,1 km/h (3 Bft)
18.05.2010 10:22 15,8 C 11,1 C 11,3 UV-I 7,0 C 56 % 80 % 100 % 1028,9 hPa 0,0 l/m 5,6 km/h (1 Bft) 2 min 13,5 km/h (3 Bft)
18.05.2010 10:24 15,8 C 11,2 C 11,3 UV-I 6,9 C 56 % 80 % 100 % 1028,9 hPa 0,0 l/m 5,2 km/h (1 Bft) 2 min 4,5 km/h (1 Bft)
18.05.2010 10:26 15,8 C 11,2 C 12,5 UV-I 7,0 C 56 % 80 % 100 % 1028,9 hPa 0,0 l/m 4,8 km/h (1 Bft) 2 min 0,0 km/h (0 Bft)
18.05.2010 10:28 15,8 C 11,5 C 12,5 UV-I 7,1 C 56 % 80 % 100 % 1028,9 hPa 0,0 l/m 4,8 km/h (1 Bft) 2 min 5,5 km/h (1 Bft)
18.05.2010 10:30 15,8 C 11,5 C 12,5 UV-I 7,4 C 56 % 80 % 100 % 1028,9 hPa 0,0 l/m 4,0 km/h (1 Bft) 2 min 14,2 km/h (3 Bft)
18.05.2010 10:32 15,8 C 11,7 C 13,4 UV-I 7,3 C 56 % 78 % 100 % 1028,9 hPa 0,0 l/m 5,2 km/h (1 Bft) 2 min 6,8 km/h (2 Bft)
18.05.2010 10:34 15,8 C 11,6 C 13,4 UV-I 7,4 C 56 % 77 % 100 % 1028,9 hPa 0,0 l/m 6,0 km/h (2 Bft) 2 min 7,4 km/h (2 Bft)
18.05.2010 10:36 15,8 C 11,6 C 13,5 UV-I 7,4 C 56 % 77 % 100 % 1028,9 hPa 0,0 l/m 6,8 km/h (2 Bft) 2 min 12,9 km/h (3 Bft)
18.05.2010 10:38 15,8 C 11,7 C 13,5 UV-I 7,4 C 56 % 76 % 100 % 1028,9 hPa 0,0 l/m 8,0 km/h (2 Bft) 2 min 11,3 km/h (2 Bft)
18.05.2010 10:40 15,8 C 11,6 C 13,5 UV-I 6,9 C 56 % 75 % 100 % 1028,9 hPa 0,0 l/m 9,6 km/h (2 Bft) 2 min 18,3 km/h (3 Bft)
18.05.2010 10:42 15,8 C 11,5 C 10,7 UV-I 6,6 C 56 % 76 % 100 % 1028,9 hPa 0,0 l/m 9,6 km/h (2 Bft) 2 min 4,2 km/h (1 Bft)
18.05.2010 10:46 15,8 C 11,6 C 13,0 UV-I 6,9 C 56 % 76 % 100 % 1028,9 hPa 0,0 l/m 8,8 km/h (2 Bft) 2 min 6,8 km/h (2 Bft)
18.05.2010 10:48 15,8 C 11,6 C 13,0 UV-I 7,0 C 56 % 76 % 100 % 1028,9 hPa 0,0 l/m 8,4 km/h (2 Bft) 2 min 5,8 km/h (2 Bft)
18.05.2010 10:50 15,8 C 11,8 C 13,0 UV-I 6,9 C 56 % 76 % 100 % 1028,9 hPa 0,0 l/m 7,2 km/h (2 Bft) 2 min 10,9 km/h (2 Bft)
18.05.2010 10:52 15,8 C 11,9 C 13,0 UV-I 6,7 C 56 % 74 % 100 % 1028,8 hPa 0,0 l/m 6,8 km/h (2 Bft) 2 min 10,0 km/h (2 Bft)
18.05.2010 10:54 15,8 C 11,9 C 13,0 UV-I 6,7 C 56 % 74 % 100 % 1028,8 hPa 0,0 l/m 7,6 km/h (2 Bft) 2 min 15,1 km/h (3 Bft)
18.05.2010 10:58 15,9 C 11,9 C 13,0 UV-I 7,0 C 56 % 75 % 100 % 1028,8 hPa 0,0 l/m 6,8 km/h (2 Bft) 2 min 4,5 km/h (1 Bft)
18.05.2010 11:04 15,9 C 12,3 C 12,4 UV-I 7,1 C 56 % 74 % 100 % 1028,8 hPa 0,0 l/m 6,4 km/h (2 Bft) 2 min 10,0 km/h (2 Bft)
18.05.2010 11:06 15,9 C 12,1 C 12,7 UV-I 7,1 C 56 % 72 % 100 % 1028,8 hPa 0,0 l/m 7,2 km/h (2 Bft) 2 min 8,4 km/h (2 Bft)
18.05.2010 11:12 15,8 C 12,2 C 8,3 UV-I 5,7 C 56 % 72 % 100 % 1028,8 hPa 0,0 l/m 9,2 km/h (2 Bft) 2 min 9,3 km/h (2 Bft)
18.05.2010 11:14 16,0 C 12,3 C 8,3 UV-I 5,4 C 56 % 73 % 100 % 1028,8 hPa 0,0 l/m 8,4 km/h (2 Bft) 2 min 9,7 km/h (2 Bft)
18.05.2010 11:16 16,0 C 12,3 C 12,5 UV-I 5,7 C 56 % 71 % 100 % 1028,8 hPa 0,0 l/m 8,4 km/h (2 Bft) 2 min 16,1 km/h (3 Bft)
18.05.2010 11:18 16,0 C 12,5 C 12,5 UV-I 5,7 C 56 % 71 % 100 % 1028,8 hPa 0,0 l/m 7,6 km/h (2 Bft) 2 min 4,2 km/h (1 Bft)
18.05.2010 11:20 16,0 C 12,5 C 12,5 UV-I 6,0 C 56 % 72 % 100 % 1028,8 hPa 0,0 l/m 7,6 km/h (2 Bft) 2 min 18,0 km/h (3 Bft)
18.05.2010 11:26 15,9 C 12,5 C 12,8 UV-I 5,8 C 56 % 71 % 100 % 1028,8 hPa 0,0 l/m 9,6 km/h (2 Bft) 2 min 24,5 km/h (4 Bft)
18.05.2010 11:28 15,9 C 12,7 C 12,8 UV-I 6,0 C 55 % 72 % 100 % 1028,8 hPa 0,0 l/m 8,8 km/h (2 Bft) 2 min 5,8 km/h (2 Bft)
18.05.2010 11:30 16,1 C 12,8 C 12,8 UV-I 6,5 C 55 % 72 % 100 % 1028,8 hPa 0,0 l/m 9,2 km/h (2 Bft) 2 min 10,9 km/h (2 Bft)
18.05.2010 11:32 16,1 C 12,9 C 11,6 UV-I 6,7 C 55 % 71 % 100 % 1029,0 hPa 0,0 l/m 8,4 km/h (2 Bft) 2 min 24,5 km/h (4 Bft)
18.05.2010 11:34 16,1 C 12,9 C 11,6 UV-I 6,2 C 55 % 70 % 100 % 1029,0 hPa 0,0 l/m 7,6 km/h (2 Bft) 2 min 3,5 km/h (1 Bft)
18.05.2010 11:36 16,1 C 12,8 C 5,9 UV-I 5,4 C 55 % 69 % 100 % 1029,0 hPa 0,0 l/m 7,2 km/h (2 Bft) 2 min 7,4 km/h (2 Bft)
18.05.2010 11:38 16,1 C 12,8 C 5,9 UV-I 4,8 C 55 % 69 % 100 % 1029,0 hPa 0,0 l/m 8,0 km/h (2 Bft) 2 min 11,9 km/h (2 Bft)
18.05.2010 11:40 16,2 C 12,7 C 5,9 UV-I 4,6 C 55 % 69 % 100 % 1029,0 hPa 0,0 l/m 8,4 km/h (2 Bft) 2 min 8,0 km/h (2 Bft)
18.05.2010 11:42 16,2 C 12,7 C 8,4 UV-I 4,8 C 55 % 70 % 100 % 1029,0 hPa 0,0 l/m 8,8 km/h (2 Bft) 2 min 4,5 km/h (1 Bft)
18.05.2010 11:44 16,2 C 12,8 C 8,4 UV-I 4,7 C 55 % 70 % 100 % 1029,0 hPa 0,0 l/m 8,0 km/h (2 Bft) 2 min 11,6 km/h (2 Bft)
18.05.2010 11:48 16,3 C 12,9 C 6,1 UV-I 4,2 C 55 % 70 % 100 % 1029,0 hPa 0,0 l/m 6,8 km/h (2 Bft) 2 min 3,9 km/h (1 Bft)
18.05.2010 11:50 16,3 C 12,9 C 6,1 UV-I 4,4 C 55 % 68 % 100 % 1029,0 hPa 0,0 l/m 6,4 km/h (2 Bft) 2 min 10,0 km/h (2 Bft)
18.05.2010 11:52 16,4 C 12,9 C 5,5 UV-I 4,2 C 55 % 68 % 100 % 1028,8 hPa 0,0 l/m 7,2 km/h (2 Bft) 2 min 12,6 km/h (3 Bft)
18.05.2010 11:54 16,4 C 13,0 C 5,5 UV-I 4,2 C 55 % 67 % 100 % 1028,8 hPa 0,0 l/m 7,6 km/h (2 Bft) 2 min 9,0 km/h (2 Bft)
18.05.2010 11:56 16,4 C 13,1 C 5,8 UV-I 4,4 C 55 % 66 % 100 % 1028,8 hPa 0,0 l/m 9,2 km/h (2 Bft) 2 min 21,9 km/h (4 Bft)
18.05.2010 12:02 16,5 C 12,8 C 4,7 UV-I 3,2 C 55 % 67 % 91 % 1028,8 hPa 0,0 l/m 10,0 km/h (2 Bft) 2 min 16,1 km/h (3 Bft)
18.05.2010 12:04 16,5 C 12,8 C 4,7 UV-I 3,2 C 55 % 67 % 91 % 1028,8 hPa 0,0 l/m 10,0 km/h (2 Bft) 2 min 6,8 km/h (2 Bft)
18.05.2010 12:06 16,5 C 13,0 C 5,8 UV-I 3,5 C 55 % 67 % 100 % 1028,8 hPa 0,0 l/m 8,4 km/h (2 Bft) 2 min 12,6 km/h (3 Bft)
18.05.2010 12:08 16,6 C 13,1 C 5,8 UV-I 3,6 C 54 % 67 % 100 % 1028,8 hPa 0,0 l/m 6,8 km/h (2 Bft) 2 min 7,7 km/h (2 Bft)
18.05.2010 12:14 16,6 C 12,9 C 3,0 UV-I 2,9 C 54 % 66 % 83 % 1029,2 hPa 0,0 l/m 8,4 km/h (2 Bft) 2 min 17,7 km/h (3 Bft)
18.05.2010 12:16 16,6 C 12,9 C 2,9 UV-I 2,5 C 54 % 66 % 71 % 1029,2 hPa 0,0 l/m 9,6 km/h (2 Bft) 0 min 16,1 km/h (3 Bft)
18.05.2010 12:18 16,7 C 12,7 C 2,9 UV-I 2,3 C 54 % 67 % 66 % 1029,2 hPa 0,0 l/m 11,2 km/h (2 Bft) 0 min 18,7 km/h (3 Bft)
18.05.2010 12:20 16,7 C 12,6 C 2,9 UV-I 2,2 C 54 % 67 % 63 % 1029,2 hPa 0,0 l/m 12,0 km/h (2 Bft) 0 min 15,4 km/h (3 Bft)
18.05.2010 12:24 16,7 C 12,7 C 4,0 UV-I 2,0 C 54 % 68 % 57 % 1029,2 hPa 0,0 l/m 12,4 km/h (3 Bft) 0 min 9,3 km/h (2 Bft)
18.05.2010 12:26 16,7 C 12,7 C 5,5 UV-I 2,0 C 54 % 68 % 57 % 1029,2 hPa 0,0 l/m 12,0 km/h (2 Bft) 0 min 13,8 km/h (3 Bft)
18.05.2010 12:28 16,7 C 12,7 C 5,5 UV-I 2,1 C 54 % 67 % 60 % 1029,2 hPa 0,0 l/m 12,0 km/h (2 Bft) 0 min 12,9 km/h (3 Bft)
18.05.2010 12:30 16,7 C 12,6 C 5,5 UV-I 2,8 C 54 % 68 % 80 % 1029,2 hPa 0,0 l/m 11,2 km/h (2 Bft) 0 min 8,0 km/h (2 Bft)
18.05.2010 12:32 16,8 C 12,8 C 7,9 UV-I 3,1 C 54 % 68 % 89 % 1029,1 hPa 0,0 l/m 11,2 km/h (2 Bft) 2 min 10,3 km/h (2 Bft)
18.05.2010 12:36 16,8 C 13,1 C 9,2 UV-I 4,0 C 54 % 66 % 100 % 1029,1 hPa 0,0 l/m 12,0 km/h (2 Bft) 2 min 17,7 km/h (3 Bft)
18.05.2010 12:38 16,8 C 13,2 C 9,2 UV-I 4,3 C 54 % 67 % 100 % 1029,1 hPa 0,0 l/m 11,2 km/h (2 Bft) 2 min 8,7 km/h (2 Bft)
18.05.2010 12:40 16,8 C 13,2 C 9,2 UV-I 4,5 C 54 % 66 % 100 % 1029,1 hPa 0,0 l/m 10,8 km/h (2 Bft) 2 min 6,4 km/h (2 Bft)
18.05.2010 12:42 16,8 C 13,2 C 8,1 UV-I 4,5 C 53 % 67 % 100 % 1029,1 hPa 0,0 l/m 9,6 km/h (2 Bft) 2 min 3,5 km/h (1 Bft)
18.05.2010 12:44 16,9 C 13,3 C 8,1 UV-I 4,3 C 53 % 66 % 100 % 1029,1 hPa 0,0 l/m 9,2 km/h (2 Bft) 2 min 12,9 km/h (3 Bft)
18.05.2010 12:46 16,9 C 13,2 C 8,3 UV-I 4,3 C 54 % 66 % 100 % 1029,1 hPa 0,0 l/m 8,8 km/h (2 Bft) 2 min 5,5 km/h (1 Bft)
18.05.2010 12:48 17,0 C 13,4 C 8,3 UV-I 4,4 C 54 % 65 % 100 % 1029,1 hPa 0,0 l/m 8,8 km/h (2 Bft) 2 min 13,2 km/h (3 Bft)
18.05.2010 12:50 17,0 C 13,4 C 8,3 UV-I 4,5 C 54 % 64 % 100 % 1029,1 hPa 0,0 l/m 9,2 km/h (2 Bft) 2 min 11,3 km/h (2 Bft)
18.05.2010 12:52 17,0 C 13,5 C 8,3 UV-I 4,3 C 54 % 65 % 100 % 1029,2 hPa 0,0 l/m 9,2 km/h (2 Bft) 2 min 9,7 km/h (2 Bft)
18.05.2010 12:54 17,0 C 13,5 C 8,3 UV-I 4,5 C 54 % 63 % 100 % 1029,2 hPa 0,0 l/m 10,0 km/h (2 Bft) 2 min 7,7 km/h (2 Bft)
18.05.2010 12:56 17,0 C 13,6 C 8,9 UV-I 4,6 C 54 % 66 % 100 % 1029,2 hPa 0,0 l/m 8,8 km/h (2 Bft) 2 min 0,0 km/h (0 Bft)
18.05.2010 12:58 17,1 C 13,7 C 8,9 UV-I 4,8 C 54 % 63 % 100 % 1029,2 hPa 0,0 l/m 9,2 km/h (2 Bft) 2 min 16,7 km/h (3 Bft)
18.05.2010 13:00 17,1 C 13,7 C 8,9 UV-I 4,5 C 53 % 63 % 100 % 1029,2 hPa 0,0 l/m 9,2 km/h (2 Bft) 2 min 9,3 km/h (2 Bft)
18.05.2010 13:02 17,1 C 13,6 C 7,3 UV-I 4,2 C 53 % 64 % 100 % 1029,2 hPa 0,0 l/m 9,2 km/h (2 Bft) 2 min 16,7 km/h (3 Bft)
18.05.2010 13:04 17,1 C 13,6 C 7,3 UV-I 3,9 C 53 % 64 % 100 % 1029,2 hPa 0,0 l/m 8,4 km/h (2 Bft) 2 min 5,8 km/h (2 Bft)
18.05.2010 13:06 17,2 C 13,9 C 8,8 UV-I 3,8 C 53 % 65 % 100 % 1029,2 hPa 0,0 l/m 8,4 km/h (2 Bft) 2 min 4,2 km/h (1 Bft)
18.05.2010 13:08 17,2 C 13,9 C 8,8 UV-I 4,6 C 53 % 64 % 100 % 1029,2 hPa 0,0 l/m 10,0 km/h (2 Bft) 2 min 16,1 km/h (3 Bft)
18.05.2010 13:10 17,2 C 14,0 C 8,8 UV-I 4,7 C 53 % 64 % 100 % 1029,2 hPa 0,0 l/m 8,4 km/h (2 Bft) 2 min 13,2 km/h (3 Bft)
18.05.2010 13:12 17,2 C 14,1 C 8,3 UV-I 4,6 C 53 % 63 % 100 % 1028,9 hPa 0,0 l/m 8,0 km/h (2 Bft) 2 min 9,3 km/h (2 Bft)
18.05.2010 13:18 17,3 C 14,4 C 9,6 UV-I 5,0 C 53 % 63 % 100 % 1028,9 hPa 0,0 l/m 8,0 km/h (2 Bft) 2 min 16,1 km/h (3 Bft)
18.05.2010 13:22 17,2 C 14,5 C 8,8 UV-I 5,1 C 53 % 61 % 100 % 1028,9 hPa 0,0 l/m 9,6 km/h (2 Bft) 2 min 20,6 km/h (4 Bft)
18.05.2010 13:24 17,2 C 14,4 C 8,8 UV-I 4,8 C 53 % 59 % 100 % 1028,9 hPa 0,0 l/m 10,4 km/h (2 Bft) 2 min 28,0 km/h (4 Bft)
18.05.2010 13:26 17,2 C 14,4 C 6,5 UV-I 4,4 C 53 % 60 % 100 % 1028,9 hPa 0,0 l/m 10,0 km/h (2 Bft) 2 min 9,0 km/h (2 Bft)
18.05.2010 13:28 17,4 C 14,4 C 6,5 UV-I 4,2 C 52 % 61 % 100 % 1028,9 hPa 0,0 l/m 9,2 km/h (2 Bft) 2 min 6,8 km/h (2 Bft)
18.05.2010 13:32 17,4 C 14,4 C 6,4 UV-I 3,6 C 52 % 60 % 100 % 1029,6 hPa 0,0 l/m 8,4 km/h (2 Bft) 2 min 28,0 km/h (4 Bft)
18.05.2010 13:34 17,4 C 14,4 C 6,4 UV-I 3,5 C 52 % 61 % 100 % 1029,6 hPa 0,0 l/m 7,2 km/h (2 Bft) 2 min 5,5 km/h (1 Bft)
18.05.2010 13:36 17,4 C 14,4 C 6,4 UV-I 3,5 C 52 % 61 % 100 % 1029,6 hPa 0,0 l/m 7,2 km/h (2 Bft) 2 min 10,9 km/h (2 Bft)
18.05.2010 13:38 17,4 C 14,5 C 6,4 UV-I 3,7 C 52 % 60 % 100 % 1029,6 hPa 0,0 l/m 8,0 km/h (2 Bft) 2 min 14,5 km/h (3 Bft)
18.05.2010 13:40 17,5 C 14,5 C 6,4 UV-I 3,9 C 52 % 60 % 100 % 1029,6 hPa 0,0 l/m 8,4 km/h (2 Bft) 2 min 7,4 km/h (2 Bft)
18.05.2010 13:42 17,5 C 14,5 C 8,0 UV-I 3,9 C 52 % 60 % 100 % 1029,6 hPa 0,0 l/m 7,6 km/h (2 Bft) 2 min 4,8 km/h (1 Bft)
18.05.2010 13:44 17,5 C 14,4 C 8,0 UV-I 3,8 C 52 % 60 % 100 % 1029,6 hPa 0,0 l/m 6,8 km/h (2 Bft) 2 min 5,5 km/h (1 Bft)
18.05.2010 13:46 17,6 C 14,4 C 7,1 UV-I 3,8 C 52 % 61 % 100 % 1029,6 hPa 0,0 l/m 6,8 km/h (2 Bft) 2 min 3,9 km/h (1 Bft)
18.05.2010 13:48 17,6 C 14,4 C 7,1 UV-I 3,8 C 52 % 60 % 100 % 1029,6 hPa 0,0 l/m 6,4 km/h (2 Bft) 2 min 7,7 km/h (2 Bft)
18.05.2010 13:50 17,6 C 14,4 C 7,1 UV-I 3,8 C 52 % 60 % 100 % 1029,6 hPa 0,0 l/m 6,8 km/h (2 Bft) 2 min 13,2 km/h (3 Bft)
18.05.2010 13:52 17,6 C 14,4 C 6,3 UV-I 3,5 C 52 % 61 % 100 % 1029,1 hPa 0,0 l/m 6,0 km/h (2 Bft) 2 min 4,5 km/h (1 Bft)
18.05.2010 13:54 17,6 C 14,4 C 6,3 UV-I 3,3 C 52 % 61 % 94 % 1029,1 hPa 0,0 l/m 7,2 km/h (2 Bft) 2 min 9,7 km/h (2 Bft)
18.05.2010 14:00 17,6 C 14,1 C 5,0 UV-I 2,9 C 52 % 60 % 83 % 1029,1 hPa 0,0 l/m 9,2 km/h (2 Bft) 2 min 18,3 km/h (3 Bft)
18.05.2010 14:02 17,6 C 14,1 C 4,1 UV-I 2,6 C 51 % 62 % 74 % 1029,1 hPa 0,0 l/m 9,2 km/h (2 Bft) 0 min 9,0 km/h (2 Bft)
18.05.2010 14:04 17,6 C 14,1 C 4,1 UV-I 2,3 C 51 % 62 % 66 % 1029,1 hPa 0,0 l/m 8,8 km/h (2 Bft) 0 min 6,1 km/h (2 Bft)
18.05.2010 14:08 17,6 C 14,0 C 2,2 UV-I 1,8 C 51 % 61 % 51 % 1029,1 hPa 0,0 l/m 8,4 km/h (2 Bft) 0 min 11,6 km/h (2 Bft)
18.05.2010 14:10 17,6 C 13,9 C 2,2 UV-I 1,6 C 51 % 61 % 46 % 1029,1 hPa 0,0 l/m 7,6 km/h (2 Bft) 0 min 16,7 km/h (3 Bft)
18.05.2010 14:12 17,6 C 13,9 C 1,9 UV-I 1,3 C 51 % 61 % 37 % 1029,1 hPa 0,0 l/m 8,8 km/h (2 Bft) 0 min 17,4 km/h (3 Bft)
18.05.2010 14:14 17,6 C 13,9 C 1,9 UV-I 1,1 C 51 % 61 % 31 % 1029,1 hPa 0,0 l/m 10,4 km/h (2 Bft) 0 min 17,4 km/h (3 Bft)
18.05.2010 14:16 17,6 C 13,9 C 3,7 UV-I 1,0 C 51 % 62 % 29 % 1029,1 hPa 0,0 l/m 10,8 km/h (2 Bft) 0 min 14,8 km/h (3 Bft)
18.05.2010 14:18 17,6 C 13,8 C 3,7 UV-I 1,1 C 51 % 63 % 31 % 1029,1 hPa 0,0 l/m 10,4 km/h (2 Bft) 0 min 5,1 km/h (1 Bft)
18.05.2010 14:22 17,7 C 13,9 C 5,4 UV-I 1,3 C 51 % 63 % 37 % 1029,1 hPa 0,0 l/m 10,4 km/h (2 Bft) 0 min 8,0 km/h (2 Bft)
18.05.2010 14:24 17,7 C 14,0 C 5,4 UV-I 1,6 C 51 % 63 % 46 % 1029,1 hPa 0,0 l/m 9,2 km/h (2 Bft) 0 min 10,3 km/h (2 Bft)
18.05.2010 14:26 17,6 C 14,1 C 5,2 UV-I 1,6 C 51 % 63 % 46 % 1029,1 hPa 0,0 l/m 8,4 km/h (2 Bft) 0 min 3,9 km/h (1 Bft)
18.05.2010 14:28 17,7 C 14,0 C 5,2 UV-I 1,8 C 51 % 63 % 51 % 1029,1 hPa 0,0 l/m 8,4 km/h (2 Bft) 0 min 17,7 km/h (3 Bft)
18.05.2010 14:30 17,7 C 14,0 C 5,2 UV-I 1,8 C 51 % 60 % 51 % 1029,1 hPa 0,0 l/m 9,2 km/h (2 Bft) 0 min 14,2 km/h (3 Bft)
18.05.2010 14:32 17,7 C 14,1 C 3,9 UV-I 1,6 C 51 % 60 % 46 % 1028,8 hPa 0,0 l/m 10,4 km/h (2 Bft) 0 min 8,7 km/h (2 Bft)
18.05.2010 14:34 17,7 C 14,0 C 3,9 UV-I 1,6 C 51 % 61 % 46 % 1028,8 hPa 0,0 l/m 11,2 km/h (2 Bft) 0 min 12,6 km/h (3 Bft)
18.05.2010 14:36 17,7 C 13,9 C 3,6 UV-I 1,5 C 51 % 61 % 43 % 1028,8 hPa 0,0 l/m 11,6 km/h (2 Bft) 0 min 12,2 km/h (2 Bft)
18.05.2010 14:38 17,7 C 13,9 C 3,6 UV-I 1,4 C 51 % 62 % 40 % 1028,8 hPa 0,0 l/m 12,0 km/h (2 Bft) 0 min 15,8 km/h (3 Bft)
18.05.2010 14:42 17,7 C 14,1 C 5,4 UV-I 1,7 C 51 % 62 % 49 % 1028,8 hPa 0,0 l/m 10,4 km/h (2 Bft) 0 min 15,8 km/h (3 Bft)
18.05.2010 14:46 17,7 C 14,0 C 5,4 UV-I 2,1 C 51 % 63 % 60 % 1028,8 hPa 0,0 l/m 8,8 km/h (2 Bft) 0 min 3,9 km/h (1 Bft)
18.05.2010 14:52 17,8 C 14,4 C 6,0 UV-I 1,9 C 51 % 63 % 54 % 1028,9 hPa 0,0 l/m 7,2 km/h (2 Bft) 0 min 9,0 km/h (2 Bft)
18.05.2010 14:54 17,8 C 14,7 C 6,0 UV-I 2,5 C 51 % 63 % 71 % 1028,9 hPa 0,0 l/m 5,6 km/h (1 Bft) 0 min 0,0 km/h (0 Bft)
18.05.2010 14:56 17,9 C 14,9 C 7,9 UV-I 3,0 C 51 % 61 % 86 % 1028,9 hPa 0,0 l/m 4,8 km/h (1 Bft) 2 min 8,7 km/h (2 Bft)
18.05.2010 14:58 17,9 C 15,0 C 7,9 UV-I 3,7 C 51 % 59 % 100 % 1028,9 hPa 0,0 l/m 6,0 km/h (2 Bft) 2 min 0,0 km/h (0 Bft)
18.05.2010 15:04 18,0 C 15,0 C 5,9 UV-I 3,5 C 51 % 57 % 100 % 1028,9 hPa 0,0 l/m 8,4 km/h (2 Bft) 2 min 13,5 km/h (3 Bft)
18.05.2010 15:08 18,0 C 14,8 C 4,2 UV-I 2,8 C 50 % 58 % 80 % 1028,9 hPa 0,0 l/m 7,6 km/h (2 Bft) 0 min 15,4 km/h (3 Bft)
18.05.2010 15:10 18,0 C 15,0 C 4,2 UV-I 2,3 C 50 % 59 % 66 % 1028,9 hPa 0,0 l/m 6,8 km/h (2 Bft) 0 min 7,4 km/h (2 Bft)
18.05.2010 15:12 18,0 C 15,2 C 6,5 UV-I 2,2 C 50 % 60 % 63 % 1029,6 hPa 0,0 l/m 6,8 km/h (2 Bft) 0 min 9,7 km/h (2 Bft)
18.05.2010 15:14 18,1 C 15,3 C 6,5 UV-I 2,9 C 50 % 57 % 83 % 1029,6 hPa 0,0 l/m 6,4 km/h (2 Bft) 2 min 0,0 km/h (0 Bft)
18.05.2010 15:16 18,1 C 15,4 C 6,5 UV-I 3,4 C 50 % 59 % 97 % 1029,6 hPa 0,0 l/m 4,8 km/h (1 Bft) 2 min 5,5 km/h (1 Bft)
18.05.2010 15:24 18,4 C 15,9 C 9,4 UV-I 4,5 C 50 % 57 % 100 % 1029,6 hPa 0,0 l/m 6,8 km/h (2 Bft) 2 min 17,7 km/h (3 Bft)
18.05.2010 15:26 18,5 C 16,0 C 9,3 UV-I 4,7 C 49 % 56 % 100 % 1029,6 hPa 0,0 l/m 7,6 km/h (2 Bft) 2 min 8,0 km/h (2 Bft)
18.05.2010 15:30 18,7 C 16,3 C 9,3 UV-I 4,8 C 49 % 53 % 100 % 1029,6 hPa 0,0 l/m 8,4 km/h (2 Bft) 2 min 8,0 km/h (2 Bft)
18.05.2010 15:32 18,8 C 16,3 C 9,4 UV-I 4,9 C 49 % 53 % 100 % 1030,9 hPa 0,0 l/m 9,6 km/h (2 Bft) 2 min 15,4 km/h (3 Bft)
18.05.2010 15:36 18,9 C 16,4 C 7,5 UV-I 5,2 C 48 % 53 % 100 % 1030,9 hPa 0,0 l/m 10,0 km/h (2 Bft) 2 min 13,5 km/h (3 Bft)
18.05.2010 15:38 19,0 C 16,3 C 7,5 UV-I 4,6 C 48 % 53 % 100 % 1030,9 hPa 0,0 l/m 8,8 km/h (2 Bft) 2 min 7,4 km/h (2 Bft)
18.05.2010 15:44 19,0 C 16,3 C 5,6 UV-I 3,8 C 47 % 54 % 100 % 1030,9 hPa 0,0 l/m 6,8 km/h (2 Bft) 2 min 12,6 km/h (3 Bft)
18.05.2010 15:52 19,2 C 16,7 C 8,8 UV-I 4,3 C 47 % 51 % 100 % 1030,8 hPa 0,0 l/m 6,8 km/h (2 Bft) 2 min 10,6 km/h (2 Bft)
18.05.2010 15:54 19,2 C 16,8 C 8,8 UV-I 4,5 C 47 % 52 % 100 % 1030,8 hPa 0,0 l/m 7,2 km/h (2 Bft) 2 min 10,9 km/h (2 Bft)
18.05.2010 15:56 19,4 C 16,9 C 9,4 UV-I 4,6 C 46 % 50 % 100 % 1030,8 hPa 0,0 l/m 7,6 km/h (2 Bft) 2 min 11,9 km/h (2 Bft)
18.05.2010 15:58 19,5 C 16,9 C 9,4 UV-I 4,7 C 46 % 50 % 100 % 1030,8 hPa 0,0 l/m 7,6 km/h (2 Bft) 2 min 5,1 km/h (1 Bft)
18.05.2010 16:04 19,6 C 16,6 C 8,6 UV-I 4,7 C 46 % 49 % 100 % 1030,8 hPa 0,0 l/m 10,4 km/h (2 Bft) 2 min 18,3 km/h (3 Bft)
18.05.2010 16:06 19,7 C 16,4 C 6,1 UV-I 4,1 C 46 % 49 % 100 % 1030,8 hPa 0,0 l/m 11,6 km/h (2 Bft) 2 min 24,8 km/h (4 Bft)
18.05.2010 16:08 19,7 C 16,0 C 6,1 UV-I 3,8 C 46 % 50 % 100 % 1030,8 hPa 0,0 l/m 12,8 km/h (3 Bft) 2 min 6,8 km/h (2 Bft)
18.05.2010 16:10 19,7 C 15,9 C 6,1 UV-I 3,0 C 46 % 50 % 86 % 1030,8 hPa 0,0 l/m 15,3 km/h (3 Bft) 2 min 30,9 km/h (5 Bft)
18.05.2010 16:12 19,7 C 15,9 C 4,8 UV-I 2,5 C 46 % 51 % 71 % 1030,9 hPa 0,0 l/m 14,9 km/h (3 Bft) 0 min 10,3 km/h (2 Bft)
18.05.2010 16:14 19,7 C 15,9 C 4,8 UV-I 2,3 C 46 % 51 % 66 % 1030,9 hPa 0,0 l/m 14,9 km/h (3 Bft) 0 min 17,1 km/h (3 Bft)
18.05.2010 16:16 19,7 C 16,0 C 7,4 UV-I 2,6 C 45 % 51 % 74 % 1030,9 hPa 0,0 l/m 13,7 km/h (3 Bft) 0 min 9,7 km/h (2 Bft)
18.05.2010 16:18 19,7 C 15,9 C 7,4 UV-I 2,9 C 45 % 52 % 83 % 1030,9 hPa 0,0 l/m 12,0 km/h (2 Bft) 2 min 9,0 km/h (2 Bft)
18.05.2010 16:22 19,8 C 16,1 C 6,1 UV-I 3,0 C 45 % 52 % 86 % 1030,9 hPa 0,0 l/m 8,8 km/h (2 Bft) 2 min 11,9 km/h (2 Bft)
18.05.2010 16:24 19,8 C 16,3 C 6,1 UV-I 2,9 C 45 % 52 % 83 % 1030,9 hPa 0,0 l/m 8,4 km/h (2 Bft) 2 min 11,6 km/h (2 Bft)
18.05.2010 16:26 19,8 C 16,2 C 5,1 UV-I 2,9 C 45 % 51 % 83 % 1030,9 hPa 0,0 l/m 8,0 km/h (2 Bft) 2 min 14,2 km/h (3 Bft)
18.05.2010 16:28 19,8 C 16,3 C 5,1 UV-I 2,7 C 45 % 52 % 77 % 1030,9 hPa 0,0 l/m 7,6 km/h (2 Bft) 0 min 10,9 km/h (2 Bft)
18.05.2010 16:54 19,7 C 15,7 C 4,9 UV-I 1,7 C 45 % 51 % 49 % 1030,1 hPa 0,0 l/m 11,2 km/h (2 Bft) 0 min 24,8 km/h (4 Bft)
18.05.2010 16:56 19,7 C 15,7 C 3,9 UV-I 1,6 C 45 % 52 % 46 % 1030,1 hPa 0,0 l/m 10,0 km/h (2 Bft) 0 min 5,8 km/h (2 Bft)
18.05.2010 17:02 19,6 C 15,6 C 4,1 UV-I 1,0 C 45 % 52 % 29 % 1030,1 hPa 0,0 l/m 9,2 km/h (2 Bft) 0 min 11,9 km/h (2 Bft)
18.05.2010 17:04 19,6 C 15,5 C 4,1 UV-I 0,9 C 45 % 52 % 26 % 1030,1 hPa 0,0 l/m 10,0 km/h (2 Bft) 0 min 5,5 km/h (1 Bft)
18.05.2010 17:06 19,6 C 15,5 C 3,4 UV-I 0,7 C 45 % 53 % 20 % 1030,1 hPa 0,0 l/m 8,8 km/h (2 Bft) 0 min 12,2 km/h (2 Bft)
18.05.2010 17:08 19,6 C 15,5 C 3,4 UV-I 0,7 C 45 % 52 % 20 % 1030,1 hPa 0,0 l/m 9,6 km/h (2 Bft) 0 min 14,2 km/h (3 Bft)
18.05.2010 17:14 19,6 C 15,9 C 7,2 UV-I 1,6 C 45 % 50 % 46 % 1028,9 hPa 0,0 l/m 8,8 km/h (2 Bft) 0 min 13,2 km/h (3 Bft)
18.05.2010 17:16 19,7 C 16,0 C 8,1 UV-I 2,2 C 45 % 49 % 63 % 1028,9 hPa 0,0 l/m 9,6 km/h (2 Bft) 0 min 6,8 km/h (2 Bft)
18.05.2010 17:18 19,7 C 16,1 C 8,1 UV-I 2,5 C 45 % 49 % 71 % 1028,9 hPa 0,0 l/m 10,0 km/h (2 Bft) 0 min 16,7 km/h (3 Bft)
18.05.2010 17:20 19,7 C 16,3 C 8,1 UV-I 2,7 C 45 % 48 % 77 % 1028,9 hPa 0,0 l/m 10,4 km/h (2 Bft) 0 min 15,1 km/h (3 Bft)
18.05.2010 17:22 19,8 C 16,2 C 7,8 UV-I 2,9 C 45 % 48 % 83 % 1028,9 hPa 0,0 l/m 10,4 km/h (2 Bft) 2 min 13,5 km/h (3 Bft)
18.05.2010 17:26 19,8 C 16,3 C 6,8 UV-I 2,8 C 45 % 48 % 80 % 1028,9 hPa 0,0 l/m 11,6 km/h (2 Bft) 0 min 16,4 km/h (3 Bft)
18.05.2010 17:28 19,9 C 16,3 C 6,8 UV-I 2,9 C 45 % 49 % 83 % 1028,9 hPa 0,0 l/m 11,6 km/h (2 Bft) 2 min 9,0 km/h (2 Bft)
18.05.2010 17:32 19,9 C 16,4 C 6,9 UV-I 3,2 C 45 % 47 % 91 % 1029,6 hPa 0,0 l/m 10,8 km/h (2 Bft) 2 min 11,9 km/h (2 Bft)
18.05.2010 17:38 20,0 C 16,3 C 5,4 UV-I 3,3 C 44 % 47 % 94 % 1029,6 hPa 0,0 l/m 13,3 km/h (3 Bft) 2 min 22,9 km/h (4 Bft)
18.05.2010 17:44 20,0 C 16,3 C 5,0 UV-I 3,3 C 44 % 48 % 94 % 1029,6 hPa 0,0 l/m 13,7 km/h (3 Bft) 2 min 17,4 km/h (3 Bft)
18.05.2010 17:46 20,1 C 16,2 C 4,5 UV-I 3,3 C 44 % 47 % 94 % 1029,6 hPa 0,0 l/m 12,8 km/h (3 Bft) 2 min 4,2 km/h (1 Bft)
18.05.2010 17:50 20,1 C 16,3 C 4,5 UV-I 3,3 C 44 % 48 % 94 % 1029,6 hPa 0,0 l/m 9,2 km/h (2 Bft) 2 min 7,4 km/h (2 Bft)
18.05.2010 17:52 20,0 C 16,1 C 3,8 UV-I 3,1 C 44 % 48 % 89 % 1029,8 hPa 0,0 l/m 8,8 km/h (2 Bft) 2 min 13,5 km/h (3 Bft)
18.05.2010 17:58 20,0 C 16,0 C 3,9 UV-I 2,8 C 44 % 48 % 80 % 1029,8 hPa 0,0 l/m 8,4 km/h (2 Bft) 0 min 11,6 km/h (2 Bft)
18.05.2010 18:00 20,0 C 16,0 C 3,9 UV-I 2,9 C 44 % 47 % 83 % 1029,8 hPa 0,0 l/m 9,2 km/h (2 Bft) 2 min 13,8 km/h (3 Bft)
18.05.2010 18:16 20,0 C 15,9 C 3,3 UV-I 1,7 C 44 % 47 % 49 % 1028,9 hPa 0,0 l/m 13,7 km/h (3 Bft) 0 min 23,2 km/h (4 Bft)
18.05.2010 18:18 19,9 C 15,9 C 3,3 UV-I 1,5 C 44 % 46 % 43 % 1028,9 hPa 0,0 l/m 12,0 km/h (2 Bft) 0 min 10,9 km/h (2 Bft)
18.05.2010 18:23 19,8 C 15,9 C 3,7 UV-I 1,4 C 44 % 47 % 40 % 1028,9 hPa 0,0 l/m 10,0 km/h (2 Bft) 0 min 22,9 km/h (4 Bft)
18.05.2010 18:28 19,8 C 15,9 C 3,0 UV-I 1,2 C 44 % 47 % 34 % 1028,9 hPa 0,0 l/m 8,4 km/h (2 Bft) 0 min 0,0 km/h (0 Bft)
18.05.2010 18:33 19,7 C 15,8 C 3,0 UV-I 1,1 C 44 % 45 % 31 % 1028,4 hPa 0,0 l/m 9,6 km/h (2 Bft) 0 min 25,4 km/h (4 Bft)
18.05.2010 18:38 19,6 C 15,8 C 2,6 UV-I 0,7 C 44 % 46 % 20 % 1028,4 hPa 0,0 l/m 9,2 km/h (2 Bft) 0 min 9,0 km/h (2 Bft)
18.05.2010 18:43 19,6 C 15,9 C 2,6 UV-I 0,4 C 44 % 46 % 11 % 1028,4 hPa 0,0 l/m 10,4 km/h (2 Bft) 0 min 18,0 km/h (3 Bft)
18.05.2010 18:48 19,5 C 15,7 C 2,9 UV-I 0,2 C 45 % 46 % 6 % 1028,4 hPa 0,0 l/m 11,6 km/h (2 Bft) 0 min 10,9 km/h (2 Bft)
18.05.2010 18:53 19,4 C 15,6 C 2,9 UV-I 0,1 C 45 % 45 % 3 % 1027,8 hPa 0,0 l/m 14,1 km/h (3 Bft) 0 min 24,5 km/h (4 Bft)
18.05.2010 18:58 19,2 C 15,7 C 2,4 UV-I 0,0 C 45 % 46 % 0 % 1027,8 hPa 0,0 l/m 12,0 km/h (2 Bft) 0 min 10,0 km/h (2 Bft)
18.05.2010 19:03 19,3 C 15,6 C 2,4 UV-I 0,0 C 45 % 45 % 0 % 1027,8 hPa 0,0 l/m 10,8 km/h (2 Bft) 0 min 19,0 km/h (3 Bft)
18.05.2010 19:08 19,2 C 15,5 C 2,2 UV-I 0,0 C 45 % 47 % 0 % 1027,8 hPa 0,0 l/m 9,6 km/h (2 Bft) 0 min 3,5 km/h (1 Bft)
18.05.2010 19:13 19,2 C 15,5 C 2,0 UV-I 0,0 C 45 % 46 % 0 % 1027,6 hPa 0,0 l/m 10,4 km/h (2 Bft) 0 min 15,4 km/h (3 Bft)
18.05.2010 19:18 19,1 C 15,5 C 1,9 UV-I 0,0 C 45 % 47 % 0 % 1027,6 hPa 0,0 l/m 9,6 km/h (2 Bft) 0 min 10,9 km/h (2 Bft)
18.05.2010 19:23 19,0 C 15,5 C 1,9 UV-I 0,0 C 45 % 47 % 0 % 1027,6 hPa 0,0 l/m 11,6 km/h (2 Bft) 0 min 7,7 km/h (2 Bft)
18.05.2010 19:28 19,0 C 15,2 C 1,7 UV-I 0,0 C 45 % 47 % 0 % 1027,6 hPa 0,0 l/m 14,1 km/h (3 Bft) 0 min 14,2 km/h (3 Bft)
18.05.2010 19:33 18,9 C 15,1 C 1,5 UV-I 0,0 C 45 % 47 % 0 % 1027,8 hPa 0,0 l/m 14,1 km/h (3 Bft) 0 min 6,8 km/h (2 Bft)
18.05.2010 19:38 18,8 C 15,1 C 1,5 UV-I 0,0 C 46 % 47 % 0 % 1027,8 hPa 0,0 l/m 13,3 km/h (3 Bft) 0 min 18,7 km/h (3 Bft)
18.05.2010 19:40 18,8 C 15,0 C 1,4 UV-I 0,0 C 46 % 48 % 0 % 1027,8 hPa 0,0 l/m 13,3 km/h (3 Bft) 0 min 7,7 km/h (2 Bft)
18.05.2010 19:42 18,8 C 15,0 C 1,4 UV-I 0,0 C 46 % 48 % 0 % 1027,8 hPa 0,0 l/m 13,3 km/h (3 Bft) 0 min 7,7 km/h (2 Bft)
18.05.2010 19:43 18,8 C 15,0 C 1,4 UV-I 0,0 C 46 % 48 % 0 % 1027,8 hPa 0,0 l/m 12,0 km/h (2 Bft) 0 min 11,6 km/h (2 Bft)
18.05.2010 19:45 18,8 C 15,1 C 1,4 UV-I 0,0 C 46 % 47 % 0 % 1027,8 hPa 0,0 l/m 12,8 km/h (3 Bft) 0 min 16,7 km/h (3 Bft)
18.05.2010 19:46 18,8 C 15,1 C 1,4 UV-I 0,0 C 46 % 47 % 0 % 1027,8 hPa 0,0 l/m 12,8 km/h (3 Bft) 0 min 16,7 km/h (3 Bft)
18.05.2010 19:48 18,8 C 15,1 C 1,4 UV-I 0,0 C 46 % 47 % 0 % 1027,8 hPa 0,0 l/m 12,4 km/h (3 Bft) 0 min 13,8 km/h (3 Bft)
18.05.2010 19:50 18,7 C 15,1 C 1,4 UV-I 0,0 C 46 % 48 % 0 % 1027,8 hPa 0,0 l/m 11,6 km/h (2 Bft) 0 min 12,9 km/h (3 Bft)
18.05.2010 19:52 18,7 C 14,9 C 1,2 UV-I 0,0 C 46 % 48 % 0 % 1027,3 hPa 0,0 l/m 10,8 km/h (2 Bft) 0 min 21,2 km/h (4 Bft)
18.05.2010 19:54 18,7 C 14,8 C 1,2 UV-I 0,0 C 46 % 48 % 0 % 1027,3 hPa 0,0 l/m 11,2 km/h (2 Bft) 0 min 13,5 km/h (3 Bft)
18.05.2010 19:56 18,7 C 14,8 C 1,0 UV-I 0,0 C 46 % 48 % 0 % 1027,3 hPa 0,0 l/m 11,2 km/h (2 Bft) 0 min 4,8 km/h (1 Bft)
18.05.2010 19:58 18,6 C 14,8 C 1,0 UV-I 0,0 C 46 % 49 % 0 % 1027,3 hPa 0,0 l/m 10,4 km/h (2 Bft) 0 min 10,6 km/h (2 Bft)
18.05.2010 20:00 18,6 C 14,8 C 1,0 UV-I 0,0 C 46 % 48 % 0 % 1027,3 hPa 0,0 l/m 12,4 km/h (3 Bft) 0 min 37,0 km/h (5 Bft)
18.05.2010 20:02 18,6 C 14,8 C 1,0 UV-I 0,0 C 46 % 48 % 0 % 1027,3 hPa 0,0 l/m 12,4 km/h (3 Bft) 0 min 8,7 km/h (2 Bft)
18.05.2010 20:04 18,6 C 14,7 C 1,0 UV-I 0,0 C 46 % 49 % 0 % 1027,3 hPa 0,0 l/m 12,4 km/h (3 Bft) 0 min 18,0 km/h (3 Bft)
18.05.2010 20:06 18,6 C 14,7 C 0,9 UV-I 0,0 C 46 % 49 % 0 % 1027,3 hPa 0,0 l/m 12,4 km/h (3 Bft) 0 min 27,7 km/h (4 Bft)
18.05.2010 20:08 18,5 C 14,6 C 0,9 UV-I 0,0 C 46 % 49 % 0 % 1027,3 hPa 0,0 l/m 14,5 km/h (3 Bft) 0 min 18,0 km/h (3 Bft)
18.05.2010 20:10 18,5 C 14,5 C 0,9 UV-I 0,0 C 46 % 49 % 0 % 1027,3 hPa 0,0 l/m 16,1 km/h (3 Bft) 0 min 13,8 km/h (3 Bft)
18.05.2010 20:12 18,5 C 14,5 C 0,8 UV-I 0,0 C 46 % 50 % 0 % 1027,3 hPa 0,0 l/m 14,9 km/h (3 Bft) 0 min 6,8 km/h (2 Bft)
18.05.2010 20:14 18,5 C 14,4 C 0,8 UV-I 0,0 C 46 % 51 % 0 % 1027,3 hPa 0,0 l/m 14,5 km/h (3 Bft) 0 min 10,6 km/h (2 Bft)
18.05.2010 20:16 18,4 C 14,5 C 0,9 UV-I 0,0 C 46 % 51 % 0 % 1027,3 hPa 0,0 l/m 15,3 km/h (3 Bft) 0 min 19,3 km/h (3 Bft)
18.05.2010 20:18 18,4 C 14,4 C 0,9 UV-I 0,0 C 46 % 51 % 0 % 1027,3 hPa 0,0 l/m 14,9 km/h (3 Bft) 0 min 12,9 km/h (3 Bft)
18.05.2010 20:20 18,4 C 14,2 C 0,9 UV-I 0,0 C 46 % 51 % 0 % 1027,3 hPa 0,0 l/m 14,5 km/h (3 Bft) 0 min 27,0 km/h (4 Bft)
18.05.2010 20:22 18,4 C 14,3 C 0,7 UV-I 0,0 C 46 % 52 % 0 % 1027,3 hPa 0,0 l/m 14,1 km/h (3 Bft) 0 min 16,1 km/h (3 Bft)
18.05.2010 20:24 18,4 C 14,2 C 0,7 UV-I 0,0 C 46 % 52 % 0 % 1027,3 hPa 0,0 l/m 14,5 km/h (3 Bft) 0 min 10,6 km/h (2 Bft)
18.05.2010 20:26 18,4 C 14,1 C 0,6 UV-I 0,0 C 46 % 52 % 0 % 1027,3 hPa 0,0 l/m 14,5 km/h (3 Bft) 0 min 9,7 km/h (2 Bft)
18.05.2010 20:28 18,2 C 14,0 C 0,6 UV-I 0,0 C 46 % 52 % 0 % 1027,3 hPa 0,0 l/m 13,3 km/h (3 Bft) 0 min 13,8 km/h (3 Bft)
18.05.2010 20:30 18,2 C 14,1 C 0,6 UV-I 0,0 C 46 % 52 % 0 % 1027,3 hPa 0,0 l/m 13,3 km/h (3 Bft) 0 min 18,3 km/h (3 Bft)
18.05.2010 20:32 18,3 C 14,0 C 0,6 UV-I 0,0 C 47 % 52 % 0 % 1027,4 hPa 0,0 l/m 12,8 km/h (3 Bft) 0 min 16,1 km/h (3 Bft)
18.05.2010 20:34 18,3 C 13,9 C 0,6 UV-I 0,0 C 47 % 52 % 0 % 1027,4 hPa 0,0 l/m 12,8 km/h (3 Bft) 0 min 24,5 km/h (4 Bft)
18.05.2010 20:36 18,2 C 13,8 C 0,6 UV-I 0,0 C 47 % 52 % 0 % 1027,4 hPa 0,0 l/m 12,4 km/h (3 Bft) 0 min 18,7 km/h (3 Bft)
18.05.2010 20:38 18,2 C 13,8 C 0,6 UV-I 0,0 C 47 % 53 % 0 % 1027,4 hPa 0,0 l/m 11,6 km/h (2 Bft) 0 min 5,5 km/h (1 Bft)
18.05.2010 20:40 18,2 C 13,9 C 0,6 UV-I 0,0 C 47 % 53 % 0 % 1027,4 hPa 0,0 l/m 11,6 km/h (2 Bft) 0 min 16,7 km/h (3 Bft)
18.05.2010 20:42 18,2 C 13,7 C 0,3 UV-I 0,0 C 47 % 53 % 0 % 1027,4 hPa 0,0 l/m 12,0 km/h (2 Bft) 0 min 12,9 km/h (3 Bft)
18.05.2010 20:44 18,2 C 13,6 C 0,3 UV-I 0,0 C 47 % 54 % 0 % 1027,4 hPa 0,0 l/m 11,6 km/h (2 Bft) 0 min 5,8 km/h (2 Bft)
18.05.2010 20:46 18,1 C 13,5 C 0,2 UV-I 0,0 C 47 % 54 % 0 % 1027,4 hPa 0,0 l/m 10,4 km/h (2 Bft) 0 min 6,8 km/h (2 Bft)
18.05.2010 20:48 18,1 C 13,5 C 0,2 UV-I 0,0 C 47 % 54 % 0 % 1027,4 hPa 0,0 l/m 10,4 km/h (2 Bft) 0 min 10,3 km/h (2 Bft)
18.05.2010 20:50 18,1 C 13,5 C 0,2 UV-I 0,0 C 47 % 54 % 0 % 1027,4 hPa 0,0 l/m 10,8 km/h (2 Bft) 0 min 4,5 km/h (1 Bft)
18.05.2010 20:52 18,1 C 13,4 C 0,1 UV-I 0,0 C 47 % 54 % 0 % 1027,8 hPa 0,0 l/m 10,8 km/h (2 Bft) 0 min 14,2 km/h (3 Bft)
18.05.2010 20:54 18,0 C 13,3 C 0,1 UV-I 0,0 C 47 % 54 % 0 % 1027,8 hPa 0,0 l/m 9,6 km/h (2 Bft) 0 min 7,1 km/h (2 Bft)
18.05.2010 20:56 18,0 C 13,3 C 0,2 UV-I 0,0 C 47 % 54 % 0 % 1027,8 hPa 0,0 l/m 10,4 km/h (2 Bft) 0 min 14,5 km/h (3 Bft)
18.05.2010 20:58 18,0 C 13,2 C 0,2 UV-I 0,0 C 47 % 54 % 0 % 1027,8 hPa 0,0 l/m 11,2 km/h (2 Bft) 0 min 6,4 km/h (2 Bft)
18.05.2010 21:00 18,0 C 13,2 C 0,2 UV-I 0,0 C 47 % 54 % 0 % 1027,8 hPa 0,0 l/m 10,0 km/h (2 Bft) 0 min 9,0 km/h (2 Bft)
18.05.2010 21:02 18,0 C 13,2 C 0,1 UV-I 0,0 C 47 % 54 % 0 % 1027,8 hPa 0,0 l/m 9,6 km/h (2 Bft) 0 min 5,5 km/h (1 Bft)
18.05.2010 21:04 18,0 C 13,1 C 0,1 UV-I 0,0 C 47 % 54 % 0 % 1027,8 hPa 0,0 l/m 9,6 km/h (2 Bft) 0 min 10,9 km/h (2 Bft)
18.05.2010 21:06 18,0 C 13,1 C 0,0 UV-I 0,0 C 47 % 54 % 0 % 1027,8 hPa 0,0 l/m 9,2 km/h (2 Bft) 0 min 4,2 km/h (1 Bft)
18.05.2010 21:08 17,9 C 13,1 C 0,0 UV-I 0,0 C 47 % 55 % 0 % 1027,8 hPa 0,0 l/m 7,6 km/h (2 Bft) 0 min 4,5 km/h (1 Bft)
18.05.2010 21:10 17,9 C 13,1 C 0,0 UV-I 0,0 C 47 % 55 % 0 % 1027,8 hPa 0,0 l/m 8,0 km/h (2 Bft) 0 min 19,3 km/h (3 Bft)
18.05.2010 21:12 17,9 C 12,9 C 0,0 UV-I 0,0 C 47 % 55 % 0 % 1027,8 hPa 0,0 l/m 8,4 km/h (2 Bft) 0 min 10,6 km/h (2 Bft)
18.05.2010 21:14 17,9 C 12,8 C 0,0 UV-I 0,0 C 48 % 55 % 0 % 1027,8 hPa 0,0 l/m 7,6 km/h (2 Bft) 0 min 9,7 km/h (2 Bft)
18.05.2010 21:16 17,8 C 12,8 C 0,0 UV-I 0,0 C 47 % 55 % 0 % 1027,8 hPa 0,0 l/m 7,6 km/h (2 Bft) 0 min 8,0 km/h (2 Bft)
18.05.2010 21:18 17,8 C 12,8 C 0,0 UV-I 0,0 C 48 % 55 % 0 % 1027,8 hPa 0,0 l/m 7,6 km/h (2 Bft) 0 min 8,7 km/h (2 Bft)
18.05.2010 21:20 17,8 C 12,7 C 0,0 UV-I 0,0 C 48 % 55 % 0 % 1027,8 hPa 0,0 l/m 7,6 km/h (2 Bft) 0 min 5,8 km/h (2 Bft)
18.05.2010 21:22 17,8 C 12,7 C 0,0 UV-I 0,0 C 48 % 55 % 0 % 1027,8 hPa 0,0 l/m 7,2 km/h (2 Bft) 0 min 7,7 km/h (2 Bft)
18.05.2010 21:24 17,8 C 12,7 C 0,0 UV-I 0,0 C 48 % 56 % 0 % 1027,8 hPa 0,0 l/m 6,8 km/h (2 Bft) 0 min 13,8 km/h (3 Bft)
18.05.2010 21:26 17,8 C 12,6 C 0,0 UV-I 0,0 C 48 % 56 % 0 % 1027,8 hPa 0,0 l/m 6,4 km/h (2 Bft) 0 min 3,2 km/h (1 Bft)
18.05.2010 21:28 17,8 C 12,5 C 0,0 UV-I 0,0 C 48 % 56 % 0 % 1027,8 hPa 0,0 l/m 5,6 km/h (1 Bft) 0 min 6,1 km/h (2 Bft)
18.05.2010 21:30 17,7 C 12,5 C 0,0 UV-I 0,0 C 48 % 56 % 0 % 1027,8 hPa 0,0 l/m 5,6 km/h (1 Bft) 0 min 4,8 km/h (1 Bft)
18.05.2010 21:32 17,7 C 12,4 C 0,0 UV-I 0,0 C 48 % 56 % 0 % 1027,6 hPa 0,0 l/m 6,0 km/h (2 Bft) 0 min 8,4 km/h (2 Bft)
18.05.2010 21:34 17,7 C 12,3 C 0,0 UV-I 0,0 C 48 % 57 % 0 % 1027,6 hPa 0,0 l/m 6,4 km/h (2 Bft) 0 min 8,7 km/h (2 Bft)
18.05.2010 21:36 17,7 C 12,3 C 0,0 UV-I 0,0 C 48 % 57 % 0 % 1027,6 hPa 0,0 l/m 7,2 km/h (2 Bft) 0 min 9,0 km/h (2 Bft)
18.05.2010 21:38 17,6 C 12,3 C 0,0 UV-I 0,0 C 48 % 57 % 0 % 1027,6 hPa 0,0 l/m 7,6 km/h (2 Bft) 0 min 3,2 km/h (1 Bft)
18.05.2010 21:40 17,6 C 12,1 C 0,0 UV-I 0,0 C 48 % 57 % 0 % 1027,6 hPa 0,0 l/m 8,0 km/h (2 Bft) 0 min 8,0 km/h (2 Bft)
18.05.2010 21:42 17,6 C 12,0 C 0,0 UV-I 0,0 C 48 % 58 % 0 % 1027,6 hPa 0,0 l/m 8,8 km/h (2 Bft) 0 min 13,2 km/h (3 Bft)
18.05.2010 21:44 17,6 C 12,0 C 0,0 UV-I 0,0 C 48 % 58 % 0 % 1027,6 hPa 0,0 l/m 8,8 km/h (2 Bft) 0 min 6,4 km/h (2 Bft)
18.05.2010 21:46 17,6 C 12,0 C 0,0 UV-I 0,0 C 48 % 58 % 0 % 1027,6 hPa 0,0 l/m 8,4 km/h (2 Bft) 0 min 6,4 km/h (2 Bft)
18.05.2010 21:48 17,6 C 11,9 C 0,0 UV-I 0,0 C 48 % 58 % 0 % 1027,6 hPa 0,0 l/m 9,6 km/h (2 Bft) 0 min 10,9 km/h (2 Bft)
18.05.2010 21:50 17,6 C 11,9 C 0,0 UV-I 0,0 C 48 % 57 % 0 % 1027,6 hPa 0,0 l/m 10,4 km/h (2 Bft) 0 min 15,1 km/h (3 Bft)
18.05.2010 21:52 17,6 C 11,9 C 0,0 UV-I 0,0 C 48 % 56 % 0 % 1028,1 hPa 0,0 l/m 10,8 km/h (2 Bft) 0 min 12,2 km/h (2 Bft)
18.05.2010 21:54 17,6 C 11,9 C 0,0 UV-I 0,0 C 48 % 56 % 0 % 1028,1 hPa 0,0 l/m 11,2 km/h (2 Bft) 0 min 10,6 km/h (2 Bft)
18.05.2010 21:56 17,5 C 11,8 C 0,0 UV-I 0,0 C 48 % 56 % 0 % 1028,1 hPa 0,0 l/m 11,6 km/h (2 Bft) 0 min 11,9 km/h (2 Bft)
18.05.2010 21:58 17,5 C 11,7 C 0,0 UV-I 0,0 C 48 % 54 % 0 % 1028,1 hPa 0,0 l/m 11,6 km/h (2 Bft) 0 min 12,2 km/h (2 Bft)
18.05.2010 22:00 17,5 C 11,6 C 0,0 UV-I 0,0 C 48 % 53 % 0 % 1028,1 hPa 0,0 l/m 12,0 km/h (2 Bft) 0 min 8,4 km/h (2 Bft)
18.05.2010 22:02 17,5 C 11,6 C 0,0 UV-I 0,0 C 48 % 53 % 0 % 1028,1 hPa 0,0 l/m 12,0 km/h (2 Bft) 0 min 15,1 km/h (3 Bft)
18.05.2010 22:04 17,5 C 11,7 C 0,0 UV-I 0,0 C 48 % 53 % 0 % 1028,1 hPa 0,0 l/m 11,2 km/h (2 Bft) 0 min 15,1 km/h (3 Bft)
18.05.2010 22:06 17,4 C 11,6 C 0,0 UV-I 0,0 C 48 % 53 % 0 % 1028,1 hPa 0,0 l/m 11,2 km/h (2 Bft) 0 min 10,3 km/h (2 Bft)
18.05.2010 22:08 17,4 C 11,5 C 0,0 UV-I 0,0 C 48 % 53 % 0 % 1028,1 hPa 0,0 l/m 11,2 km/h (2 Bft) 0 min 12,9 km/h (3 Bft)
18.05.2010 22:10 17,4 C 11,4 C 0,0 UV-I 0,0 C 48 % 53 % 0 % 1028,1 hPa 0,0 l/m 10,8 km/h (2 Bft) 0 min 10,0 km/h (2 Bft)
18.05.2010 22:12 17,4 C 11,5 C 0,0 UV-I 0,0 C 48 % 53 % 0 % 1028,2 hPa 0,0 l/m 9,6 km/h (2 Bft) 0 min 4,2 km/h (1 Bft)
18.05.2010 22:14 17,4 C 11,5 C 0,0 UV-I 0,0 C 48 % 53 % 0 % 1028,2 hPa 0,0 l/m 9,2 km/h (2 Bft) 0 min 6,8 km/h (2 Bft)
18.05.2010 22:16 17,4 C 11,3 C 0,0 UV-I 0,0 C 49 % 53 % 0 % 1028,2 hPa 0,0 l/m 8,8 km/h (2 Bft) 0 min 6,4 km/h (2 Bft)
18.05.2010 22:18 17,4 C 11,2 C 0,0 UV-I 0,0 C 49 % 53 % 0 % 1028,2 hPa 0,0 l/m 8,0 km/h (2 Bft) 0 min 3,2 km/h (1 Bft)
18.05.2010 22:20 17,4 C 11,2 C 0,0 UV-I 0,0 C 48 % 53 % 0 % 1028,2 hPa 0,0 l/m 7,2 km/h (2 Bft) 0 min 6,1 km/h (2 Bft)
18.05.2010 22:22 17,2 C 11,1 C 0,0 UV-I 0,0 C 49 % 54 % 0 % 1028,2 hPa 0,0 l/m 6,4 km/h (2 Bft) 0 min 3,9 km/h (1 Bft)
18.05.2010 22:24 17,2 C 11,1 C 0,0 UV-I 0,0 C 49 % 54 % 0 % 1028,2 hPa 0,0 l/m 6,8 km/h (2 Bft) 0 min 12,6 km/h (3 Bft)
18.05.2010 22:26 17,2 C 11,1 C 0,0 UV-I 0,0 C 49 % 54 % 0 % 1028,2 hPa 0,0 l/m 6,4 km/h (2 Bft) 0 min 8,4 km/h (2 Bft)
18.05.2010 22:28 17,3 C 11,0 C 0,0 UV-I 0,0 C 49 % 55 % 0 % 1028,2 hPa 0,0 l/m 6,0 km/h (2 Bft) 0 min 6,1 km/h (2 Bft)
18.05.2010 22:30 17,3 C 10,9 C 0,0 UV-I 0,0 C 49 % 55 % 0 % 1028,2 hPa 0,0 l/m 5,6 km/h (1 Bft) 0 min 3,9 km/h (1 Bft)
18.05.2010 22:32 17,3 C 10,8 C 0,0 UV-I 0,0 C 49 % 55 % 0 % 1028,7 hPa 0,0 l/m 5,6 km/h (1 Bft) 0 min 5,8 km/h (2 Bft)
18.05.2010 22:34 17,2 C 10,8 C 0,0 UV-I 0,0 C 49 % 56 % 0 % 1028,7 hPa 0,0 l/m 5,6 km/h (1 Bft) 0 min 5,1 km/h (1 Bft)
18.05.2010 22:36 17,2 C 10,7 C 0,0 UV-I 0,0 C 49 % 56 % 0 % 1028,7 hPa 0,0 l/m 5,2 km/h (1 Bft) 0 min 6,8 km/h (2 Bft)
18.05.2010 22:38 17,2 C 10,7 C 0,0 UV-I 0,0 C 49 % 56 % 0 % 1028,7 hPa 0,0 l/m 4,8 km/h (1 Bft) 0 min 8,0 km/h (2 Bft)
18.05.2010 22:40 17,2 C 10,7 C 0,0 UV-I 0,0 C 49 % 56 % 0 % 1028,7 hPa 0,0 l/m 4,8 km/h (1 Bft) 0 min 5,5 km/h (1 Bft)
18.05.2010 22:42 17,2 C 10,6 C 0,0 UV-I 0,0 C 49 % 56 % 0 % 1028,7 hPa 0,0 l/m 4,8 km/h (1 Bft) 0 min 4,5 km/h (1 Bft)
18.05.2010 22:44 17,2 C 10,5 C 0,0 UV-I 0,0 C 49 % 57 % 0 % 1028,7 hPa 0,0 l/m 5,6 km/h (1 Bft) 0 min 10,6 km/h (2 Bft)
18.05.2010 22:46 17,2 C 10,4 C 0,0 UV-I 0,0 C 49 % 57 % 0 % 1028,7 hPa 0,0 l/m 5,6 km/h (1 Bft) 0 min 8,0 km/h (2 Bft)
18.05.2010 22:48 17,2 C 10,4 C 0,0 UV-I 0,0 C 49 % 57 % 0 % 1028,7 hPa 0,0 l/m 5,2 km/h (1 Bft) 0 min 6,1 km/h (2 Bft)
18.05.2010 22:50 17,2 C 10,4 C 0,0 UV-I 0,0 C 49 % 58 % 0 % 1028,7 hPa 0,0 l/m 5,6 km/h (1 Bft) 0 min 4,8 km/h (1 Bft)
18.05.2010 22:52 17,2 C 10,4 C 0,0 UV-I 0,0 C 49 % 58 % 0 % 1028,4 hPa 0,0 l/m 5,2 km/h (1 Bft) 0 min 0,0 km/h (0 Bft)
18.05.2010 22:54 17,2 C 10,3 C 0,0 UV-I 0,0 C 49 % 58 % 0 % 1028,4 hPa 0,0 l/m 4,8 km/h (1 Bft) 0 min 6,1 km/h (2 Bft)
18.05.2010 22:56 17,1 C 10,2 C 0,0 UV-I 0,0 C 49 % 59 % 0 % 1028,4 hPa 0,0 l/m 3,6 km/h (1 Bft) 0 min 6,1 km/h (2 Bft)
18.05.2010 22:58 17,1 C 10,3 C 0,0 UV-I 0,0 C 49 % 59 % 0 % 1028,4 hPa 0,0 l/m 3,2 km/h (1 Bft) 0 min 5,5 km/h (1 Bft)
18.05.2010 23:00 17,1 C 10,1 C 0,0 UV-I 0,0 C 49 % 59 % 0 % 1028,4 hPa 0,0 l/m 3,2 km/h (1 Bft) 0 min 0,0 km/h (0 Bft)
18.05.2010 23:02 17,1 C 10,1 C 0,0 UV-I 0,0 C 49 % 60 % 0 % 1028,4 hPa 0,0 l/m 2,8 km/h (1 Bft) 0 min 3,5 km/h (1 Bft)
18.05.2010 23:04 17,1 C 10,1 C 0,0 UV-I 0,0 C 49 % 60 % 0 % 1028,4 hPa 0,0 l/m 2,8 km/h (1 Bft) 0 min 7,1 km/h (2 Bft)
18.05.2010 23:06 17,1 C 10,1 C 0,0 UV-I 0,0 C 49 % 60 % 0 % 1028,4 hPa 0,0 l/m 2,8 km/h (1 Bft) 0 min 0,0 km/h (0 Bft)
18.05.2010 23:08 17,1 C 10,0 C 0,0 UV-I 0,0 C 49 % 61 % 0 % 1028,4 hPa 0,0 l/m 2,8 km/h (1 Bft) 0 min 4,2 km/h (1 Bft)
18.05.2010 23:10 17,1 C 9,9 C 0,0 UV-I 0,0 C 49 % 61 % 0 % 1028,4 hPa 0,0 l/m 2,4 km/h (1 Bft) 0 min 0,0 km/h (0 Bft)
18.05.2010 23:12 17,1 C 9,9 C 0,0 UV-I 0,0 C 49 % 61 % 0 % 1028,3 hPa 0,0 l/m 2,0 km/h (1 Bft) 0 min 0,0 km/h (0 Bft)
18.05.2010 23:14 17,0 C 9,9 C 0,0 UV-I 0,0 C 49 % 61 % 0 % 1028,3 hPa 0,0 l/m 2,0 km/h (1 Bft) 0 min 0,0 km/h (0 Bft)
18.05.2010 23:16 17,0 C 9,7 C 0,0 UV-I 0,0 C 49 % 62 % 0 % 1028,3 hPa 0,0 l/m 1,2 km/h (1 Bft) 0 min 0,0 km/h (0 Bft)
18.05.2010 23:18 17,0 C 9,7 C 0,0 UV-I 0,0 C 49 % 62 % 0 % 1028,3 hPa 0,0 l/m 0,8 km/h (0 Bft) 0 min 0,0 km/h (0 Bft)
18.05.2010 23:20 17,0 C 9,6 C 0,0 UV-I 0,0 C 49 % 62 % 0 % 1028,3 hPa 0,0 l/m 0,0 km/h (0 Bft) 0 min 0,0 km/h (0 Bft)
18.05.2010 23:22 17,0 C 9,6 C 0,0 UV-I 0,0 C 49 % 62 % 0 % 1028,3 hPa 0,0 l/m 0,0 km/h (0 Bft) 0 min 0,0 km/h (0 Bft)
18.05.2010 23:24 17,0 C 9,5 C 0,0 UV-I 0,0 C 49 % 63 % 0 % 1028,3 hPa 0,0 l/m 0,0 km/h (0 Bft) 0 min 3,5 km/h (1 Bft)
18.05.2010 23:26 17,0 C 9,5 C 0,0 UV-I 0,0 C 49 % 64 % 0 % 1028,3 hPa 0,0 l/m 0,0 km/h (0 Bft) 0 min 0,0 km/h (0 Bft)
18.05.2010 23:28 17,0 C 9,3 C 0,0 UV-I 0,0 C 49 % 64 % 0 % 1028,3 hPa 0,0 l/m 0,0 km/h (0 Bft) 0 min 0,0 km/h (0 Bft)
18.05.2010 23:30 17,0 C 9,3 C 0,0 UV-I 0,0 C 49 % 64 % 0 % 1028,3 hPa 0,0 l/m 0,0 km/h (0 Bft) 0 min 0,0 km/h (0 Bft)
18.05.2010 23:32 17,0 C 9,2 C 0,0 UV-I 0,0 C 49 % 64 % 0 % 1028,1 hPa 0,0 l/m 0,0 km/h (0 Bft) 0 min 0,0 km/h (0 Bft)
18.05.2010 23:34 17,0 C 9,1 C 0,0 UV-I 0,0 C 49 % 64 % 0 % 1028,1 hPa 0,0 l/m 0,0 km/h (0 Bft) 0 min 0,0 km/h (0 Bft)
18.05.2010 23:36 17,0 C 9,1 C 0,0 UV-I 0,0 C 49 % 65 % 0 % 1028,1 hPa 0,0 l/m 0,0 km/h (0 Bft) 0 min 4,5 km/h (1 Bft)
18.05.2010 23:38 17,0 C 9,0 C 0,0 UV-I 0,0 C 49 % 65 % 0 % 1028,1 hPa 0,0 l/m 0,0 km/h (0 Bft) 0 min 0,0 km/h (0 Bft)
18.05.2010 23:40 16,9 C 8,9 C 0,0 UV-I 0,0 C 49 % 65 % 0 % 1028,1 hPa 0,0 l/m 0,4 km/h (0 Bft) 0 min 0,0 km/h (0 Bft)
18.05.2010 23:42 16,9 C 8,8 C 0,0 UV-I 0,0 C 49 % 66 % 0 % 1028,1 hPa 0,0 l/m 0,4 km/h (0 Bft) 0 min 0,0 km/h (0 Bft)
18.05.2010 23:44 16,9 C 8,8 C 0,0 UV-I 0,0 C 49 % 66 % 0 % 1028,1 hPa 0,0 l/m 0,4 km/h (0 Bft) 0 min 0,0 km/h (0 Bft)
18.05.2010 23:46 16,9 C 8,8 C 0,0 UV-I 0,0 C 49 % 66 % 0 % 1028,1 hPa 0,0 l/m 0,4 km/h (0 Bft) 0 min 0,0 km/h (0 Bft)
18.05.2010 23:48 16,9 C 8,7 C 0,0 UV-I 0,0 C 49 % 67 % 0 % 1028,1 hPa 0,0 l/m 0,4 km/h (0 Bft) 0 min 0,0 km/h (0 Bft)
18.05.2010 23:50 16,9 C 8,7 C 0,0 UV-I 0,0 C 49 % 67 % 0 % 1028,1 hPa 0,0 l/m 0,0 km/h (0 Bft) 0 min 0,0 km/h (0 Bft)
18.05.2010 23:54 16,9 C 8,5 C 0,0 UV-I 0,0 C 49 % 67 % 0 % 1028,1 hPa 0,0 l/m 0,0 km/h (0 Bft) 0 min 0,0 km/h (0 Bft)
18.05.2010 23:56 16,8 C 8,5 C 0,0 UV-I 0,0 C 50 % 67 % 0 % 1028,1 hPa 0,0 l/m 0,0 km/h (0 Bft) 0 min 0,0 km/h (0 Bft)
18.05.2010 23:58 16,9 C 8,4 C 0,0 UV-I 0,0 C 50 % 67 % 0 % 1028,1 hPa 0,0 l/m 0,0 km/h (0 Bft) 0 min 0,0 km/h (0 Bft)
_ Min-Zeit 05:36 06:00 00:02 00:02 17:38 18:33 00:02 00:12 - 00:16 - 00:02
Minimum _ 15,1 C 4,9 C 0,0 UV-I 0,0 C 44 % 45 % 0 % 1025,9 hPa - 0,0 km/h (0 Bft) - 0,0 km/h (0 Bft)
_ Max-Zeit 17:46 15:56 10:36 10:38 02:20 07:58 08:32 15:32 00:02 20:10 08:32 20:00
Maximum _ 20,1 C 16,9 C 13,5 UV-I 7,4 C 57 % 95 % 100 % 1030,9 hPa 0,0 l/m 16,1 km/h
W (3 Bft)
2 min 37,0 km/h
S-SW (5 Bft)
Durchschnitt _ 16,9 C 10,9 C 3,1 UV-I 1,6 C 52 % 72 % 35 % 1028,2 hPa #0,0 l/m 5,4 km/h (1 Bft) #5:06 h 7,1 km/h (2 Bft)
© 2012 W. Hausmann